Observation data for Weinert on 02/22/2019      Previous  Date  Next       Current Mesonet Observations  Soil Data  Daily Summary Page  Observations in Plain Language
KWE1 220600Z 09008KT 03/00 A2996 RMK A01 T00340003  RH  080%=      5-min Rain = 0
KWE1 220601Z 09008KT 03/00 A2996 RMK A01 T00340003  RH  080%=      5-min Rain = 0
KWE1 220602Z 10008KT 03/00 A2996 RMK A01 T00340003  RH  080%=      5-min Rain = 0
KWE1 220603Z 09008KT 03/00 A2995 RMK A01 T00340003  RH  080%=      5-min Rain = 0
KWE1 220604Z 09008KT 03/00 A2995 RMK A01 T00330002  RH  080%=      5-min Rain = 0
KWE1 220605Z 10008KT 03/00 A2995 RMK A01 T00330003  RH  081%=      5-min Rain = 0
KWE1 220606Z 10007KT 03/00 A2996 RMK A01 T00330003  RH  081%=      5-min Rain = 0
KWE1 220607Z 10008KT 03/00 A2996 RMK A01 T00320003  RH  081%=      5-min Rain = 0
KWE1 220608Z 10009KT 03/00 A2996 RMK A01 T00320003  RH  081%=      5-min Rain = 0
KWE1 220609Z 10010KT 03/00 A2996 RMK A01 T00320003  RH  082%=      5-min Rain = 0
KWE1 220610Z 10009KT 03/00 A2996 RMK A01 T00320003  RH  081%=      5-min Rain = 0
KWE1 220611Z 10009KT 03/00 A2996 RMK A01 T00320003  RH  081%=      5-min Rain = 0
KWE1 220612Z 10008KT 03/00 A2996 RMK A01 T00320003  RH  082%=      5-min Rain = 0
KWE1 220613Z 10010KT 03/00 A2996 RMK A01 T00320003  RH  082%=      5-min Rain = 0
KWE1 220614Z 11009KT 03/00 A2996 RMK A01 T00320004  RH  082%=      5-min Rain = 0
KWE1 220615Z 11010KT 03/01 A2995 RMK A01 T00320005  RH  082%=      5-min Rain = 0
KWE1 220616Z 11009KT 03/01 A2995 RMK A01 T00330005  RH  082%=      5-min Rain = 0
KWE1 220617Z 10009KT 03/01 A2995 RMK A01 T00330006  RH  082%=      5-min Rain = 0
KWE1 220618Z 11009KT 03/01 A2995 RMK A01 T00340007  RH  082%=      5-min Rain = 0
KWE1 220619Z 11009KT 04/01 A2995 RMK A01 T00350007  RH  082%=      5-min Rain = 0
KWE1 220620Z 11010KT 04/01 A2995 RMK A01 T00360008  RH  082%=      5-min Rain = 0
KWE1 220621Z 11008KT 04/01 A2995 RMK A01 T00360008  RH  082%=      5-min Rain = 0
KWE1 220622Z 11009KT 04/01 A2995 RMK A01 T00360007  RH  082%=      5-min Rain = 0
KWE1 220623Z 11009KT 04/01 A2995 RMK A01 T00360008  RH  082%=      5-min Rain = 0
KWE1 220624Z 11009KT 04/01 A2995 RMK A01 T00370009  RH  082%=      5-min Rain = 0
KWE1 220625Z 11011G16KT 04/01 A2995 RMK A01 T00390011  RH  082%=      5-min Rain = 0
KWE1 220626Z 10011KT 04/01 A2995 RMK A01 T00410012  RH  082%=      5-min Rain = 0
KWE1 220627Z 10010KT 04/01 A2995 RMK A01 T00420012  RH  081%=      5-min Rain = 0
KWE1 220628Z 10010KT 04/01 A2995 RMK A01 T00420011  RH  080%=      5-min Rain = 0
KWE1 220629Z 10012KT 04/01 A2995 RMK A01 T00410011  RH  081%=      5-min Rain = 0
KWE1 220630Z 10010KT 04/01 A2995 RMK A01 T00410011  RH  081%=      5-min Rain = 0
KWE1 220631Z 10009KT 04/01 A2995 RMK A01 T00410011  RH  081%=      5-min Rain = 0
KWE1 220632Z 10008KT 04/01 A2995 RMK A01 T00410011  RH  081%=      5-min Rain = 0
KWE1 220633Z 11007KT 04/01 A2995 RMK A01 T00410011  RH  081%=      5-min Rain = 0
KWE1 220634Z 11009KT 04/01 A2995 RMK A01 T00410011  RH  081%=      5-min Rain = 0
KWE1 220635Z 11009KT 04/01 A2995 RMK A01 T00420012  RH  081%=      5-min Rain = 0
KWE1 220636Z 11008KT 04/01 A2995 RMK A01 T00430013  RH  081%=      5-min Rain = 0
KWE1 220637Z 10008KT 05/02 A2995 RMK A01 T00450015  RH  081%=      5-min Rain = 0
KWE1 220638Z 11009KT 05/02 A2995 RMK A01 T00470016  RH  081%=      5-min Rain = 0
KWE1 220639Z 12011KT 05/02 A2995 RMK A01 T00480017  RH  080%=      5-min Rain = 0
KWE1 220640Z 12010KT 05/02 A2995 RMK A01 T00500018  RH  079%=      5-min Rain = 0
KWE1 220641Z 11009KT 05/02 A2995 RMK A01 T00520018  RH  079%=      5-min Rain = 0
KWE1 220642Z 11011KT 05/02 A2995 RMK A01 T00520018  RH  078%=      5-min Rain = 0
KWE1 220643Z 11009KT 05/02 A2995 RMK A01 T00530018  RH  078%=      5-min Rain = 0
KWE1 220644Z 11007KT 05/02 A2995 RMK A01 T00540018  RH  078%=      5-min Rain = 0
KWE1 220645Z 11009KT 05/02 A2995 RMK A01 T00540018  RH  078%=      5-min Rain = 0
KWE1 220646Z 11009KT 05/02 A2995 RMK A01 T00540018  RH  078%=      5-min Rain = 0
KWE1 220647Z 11007KT 05/02 A2995 RMK A01 T00540018  RH  078%=      5-min Rain = 0
KWE1 220648Z 11007G12KT 05/02 A2995 RMK A01 T00540018  RH  078%=      5-min Rain = 0
KWE1 220649Z 11009KT 05/02 A2995 RMK A01 T00530018  RH  078%=      5-min Rain = 0
KWE1 220650Z 10008KT 05/02 A2995 RMK A01 T00530018  RH  078%=      5-min Rain = 0
KWE1 220651Z 11009KT 05/02 A2995 RMK A01 T00530018  RH  078%=      5-min Rain = 0
KWE1 220652Z 11008KT 05/02 A2995 RMK A01 T00520017  RH  078%=      5-min Rain = 0
KWE1 220653Z 11009KT 05/02 A2995 RMK A01 T00520018  RH  078%=      5-min Rain = 0
KWE1 220654Z 10007KT 05/02 A2995 RMK A01 T00520018  RH  079%=      5-min Rain = 0
KWE1 220655Z 10009KT 05/02 A2994 RMK A01 T00520018  RH  079%=      5-min Rain = 0
KWE1 220656Z 10009KT 05/02 A2994 RMK A01 T00530018  RH  079%=      5-min Rain = 0
KWE1 220657Z 11010KT 05/02 A2994 RMK A01 T00530018  RH  078%=      5-min Rain = 0
KWE1 220658Z 10008KT 05/02 A2994 RMK A01 T00530019  RH  078%=      5-min Rain = 0
KWE1 220659Z 11009KT 05/02 A2994 RMK A01 T00530018  RH  078%=      5-min Rain = 0
KWE1 220700Z 12009KT 05/02 A2995 RMK A01 T00540019  RH  078%=      5-min Rain = 0
KWE1 220701Z 12010KT 06/02 A2995 RMK A01 T00550020  RH  078%=      5-min Rain = 0
KWE1 220702Z 11009KT 06/02 A2995 RMK A01 T00550019  RH  078%=      5-min Rain = 0
KWE1 220703Z 11009KT 06/02 A2995 RMK A01 T00550019  RH  078%=      5-min Rain = 0
KWE1 220704Z 11009KT 06/02 A2995 RMK A01 T00550019  RH  078%=      5-min Rain = 0
KWE1 220705Z 11009KT 06/02 A2995 RMK A01 T00550019  RH  078%=      5-min Rain = 0
KWE1 220706Z 11009KT 06/02 A2995 RMK A01 T00550019  RH  078%=      5-min Rain = 0
KWE1 220707Z 10009KT 06/02 A2995 RMK A01 T00550020  RH  078%=      5-min Rain = 0
KWE1 220708Z 11010KT 06/02 A2995 RMK A01 T00550019  RH  078%=      5-min Rain = 0
KWE1 220709Z 10009KT 06/02 A2994 RMK A01 T00550019  RH  078%=      5-min Rain = 0
KWE1 220710Z 10009KT 06/02 A2995 RMK A01 T00550020  RH  078%=      5-min Rain = 0
KWE1 220711Z 11010KT 06/02 A2995 RMK A01 T00550020  RH  078%=      5-min Rain = 0
KWE1 220712Z 11008KT 06/02 A2995 RMK A01 T00550020  RH  078%=      5-min Rain = 0
KWE1 220713Z 10007KT 06/02 A2995 RMK A01 T00550020  RH  078%=      5-min Rain = 0
KWE1 220714Z 10008KT 06/02 A2995 RMK A01 T00550020  RH  078%=      5-min Rain = 0
KWE1 220715Z 10008KT 05/02 A2995 RMK A01 T00540020  RH  078%=      5-min Rain = 0
KWE1 220716Z 10008KT 05/02 A2995 RMK A01 T00540020  RH  079%=      5-min Rain = 0
KWE1 220717Z 11009KT 05/02 A2995 RMK A01 T00530020  RH  079%=      5-min Rain = 0
KWE1 220718Z 11009KT 05/02 A2995 RMK A01 T00540021  RH  079%=      5-min Rain = 0
KWE1 220719Z 11007KT 06/02 A2995 RMK A01 T00550021  RH  079%=      5-min Rain = 0
KWE1 220720Z 11006KT 06/02 A2995 RMK A01 T00550021  RH  078%=      5-min Rain = 0
KWE1 220721Z 11008KT 06/02 A2995 RMK A01 T00550021  RH  078%=      5-min Rain = 0
KWE1 220722Z 10007KT 06/02 A2995 RMK A01 T00550021  RH  079%=      5-min Rain = 0
KWE1 220723Z 10006KT 06/02 A2995 RMK A01 T00550021  RH  079%=      5-min Rain = 0
KWE1 220724Z 11007KT 06/02 A2995 RMK A01 T00550021  RH  079%=      5-min Rain = 0
KWE1 220725Z 10007KT 06/02 A2995 RMK A01 T00560022  RH  079%=      5-min Rain = 0
KWE1 220726Z 11006KT 06/02 A2995 RMK A01 T00560022  RH  078%=      5-min Rain = 0
KWE1 220727Z 11008KT 06/02 A2995 RMK A01 T00560022  RH  078%=      5-min Rain = 0
KWE1 220728Z 11008KT 06/02 A2995 RMK A01 T00560022  RH  078%=      5-min Rain = 0
KWE1 220729Z 10008KT 06/02 A2995 RMK A01 T00560021  RH  078%=      5-min Rain = 0
KWE1 220730Z 11009KT 06/02 A2994 RMK A01 T00560021  RH  078%=      5-min Rain = 0
KWE1 220731Z 10007KT 06/02 A2994 RMK A01 T00570022  RH  078%=      5-min Rain = 0
KWE1 220732Z 09007KT 06/02 A2994 RMK A01 T00570022  RH  078%=      5-min Rain = 0
KWE1 220733Z 10007KT 06/02 A2994 RMK A01 T00560022  RH  078%=      5-min Rain = 0
KWE1 220734Z 10008KT 06/02 A2994 RMK A01 T00570023  RH  079%=      5-min Rain = 0
KWE1 220735Z 09009KT 06/02 A2994 RMK A01 T00570023  RH  079%=      5-min Rain = 0
KWE1 220736Z 09009KT 06/02 A2994 RMK A01 T00560023  RH  079%=      5-min Rain = 0
KWE1 220737Z 09009KT 06/02 A2994 RMK A01 T00560022  RH  079%=      5-min Rain = 0
KWE1 220738Z 09007KT 06/02 A2993 RMK A01 T00560022  RH  079%=      5-min Rain = 0
KWE1 220739Z 10008KT 06/02 A2993 RMK A01 T00560023  RH  079%=      5-min Rain = 0
KWE1 220740Z 10010KT 06/02 A2993 RMK A01 T00560023  RH  079%=      5-min Rain = 0
KWE1 220741Z 10010KT 06/02 A2993 RMK A01 T00560023  RH  079%=      5-min Rain = 0
KWE1 220742Z 10009KT 06/02 A2993 RMK A01 T00560023  RH  079%=      5-min Rain = 0
KWE1 220743Z 09008KT 06/02 A2993 RMK A01 T00560022  RH  079%=      5-min Rain = 0
KWE1 220744Z 09008KT 06/02 A2993 RMK A01 T00560023  RH  079%=      5-min Rain = 0
KWE1 220745Z 09009KT 06/02 A2993 RMK A01 T00560023  RH  079%=      5-min Rain = 0
KWE1 220746Z 09009KT 06/02 A2993 RMK A01 T00560023  RH  079%=      5-min Rain = 0
KWE1 220747Z 09010KT 06/02 A2993 RMK A01 T00560023  RH  079%=      5-min Rain = 0
KWE1 220748Z 09010KT 06/02 A2993 RMK A01 T00560023  RH  079%=      5-min Rain = 0
KWE1 220749Z 09010KT 06/02 A2992 RMK A01 T00560023  RH  080%=      5-min Rain = 0
KWE1 220750Z 09011KT 06/02 A2992 RMK A01 T00550023  RH  080%=      5-min Rain = 0
KWE1 220751Z 09012KT 06/02 A2992 RMK A01 T00550023  RH  080%=      5-min Rain = 0
KWE1 220752Z 10010KT 06/02 A2992 RMK A01 T00550023  RH  080%=      5-min Rain = 0
KWE1 220753Z 09010KT 06/02 A2992 RMK A01 T00550023  RH  080%=      5-min Rain = 0
KWE1 220754Z 10010KT 06/02 A2992 RMK A01 T00550023  RH  080%=      5-min Rain = 0
KWE1 220755Z 10009KT 06/02 A2992 RMK A01 T00550023  RH  080%=      5-min Rain = 0
KWE1 220756Z 10010KT 06/02 A2992 RMK A01 T00560024  RH  080%=      5-min Rain = 0
KWE1 220757Z 10010KT 06/02 A2992 RMK A01 T00560024  RH  080%=      5-min Rain = 0
KWE1 220758Z 10012KT 06/02 A2992 RMK A01 T00560024  RH  080%=      5-min Rain = 0
KWE1 220759Z 10010KT 06/02 A2992 RMK A01 T00560024  RH  080%=      5-min Rain = 0
KWE1 220800Z 10010KT 06/03 A2992 RMK A01 T00560025  RH  080%=      5-min Rain = 0
KWE1 220801Z 11010KT 06/03 A2992 RMK A01 T00560025  RH  080%=      5-min Rain = 0
KWE1 220802Z 11009KT 06/03 A2992 RMK A01 T00560025  RH  080%=      5-min Rain = 0
KWE1 220803Z 10009KT 06/03 A2992 RMK A01 T00560025  RH  081%=      5-min Rain = 0
KWE1 220804Z 10009KT 06/03 A2992 RMK A01 T00560026  RH  081%=      5-min Rain = 0
KWE1 220805Z 10009KT 06/03 A2992 RMK A01 T00570026  RH  081%=      5-min Rain = 0
KWE1 220806Z 11008KT 06/03 A2992 RMK A01 T00570027  RH  081%=      5-min Rain = 0
KWE1 220807Z 11009KT 06/03 A2992 RMK A01 T00570027  RH  081%=      5-min Rain = 0
KWE1 220808Z 11008KT 06/03 A2992 RMK A01 T00570028  RH  081%=      5-min Rain = 0
KWE1 220809Z 10008KT 06/03 A2992 RMK A01 T00580029  RH  081%=      5-min Rain = 0
KWE1 220810Z 10010KT 06/03 A2992 RMK A01 T00580029  RH  081%=      5-min Rain = 0
KWE1 220811Z 10008KT 06/03 A2993 RMK A01 T00580029  RH  082%=      5-min Rain = 0
KWE1 220812Z 11006KT 06/03 A2993 RMK A01 T00580029  RH  082%=      5-min Rain = 0
KWE1 220813Z 11008KT 06/03 A2993 RMK A01 T00580029  RH  082%=      5-min Rain = 0
KWE1 220814Z 11008KT 06/03 A2993 RMK A01 T00590030  RH  082%=      5-min Rain = 0
KWE1 220815Z 11008KT 06/03 A2993 RMK A01 T00590030  RH  082%=      5-min Rain = 0
KWE1 220816Z 11008KT 06/03 A2993 RMK A01 T00580030  RH  082%=      5-min Rain = 0
KWE1 220817Z 10007KT 06/03 A2993 RMK A01 T00580030  RH  082%=      5-min Rain = 0
KWE1 220818Z 10008KT 06/03 A2993 RMK A01 T00590031  RH  082%=      5-min Rain = 0
KWE1 220819Z 11008KT 06/03 A2993 RMK A01 T00580031  RH  082%=      5-min Rain = 0
KWE1 220820Z 10007KT 06/03 A2993 RMK A01 T00580030  RH  082%=      5-min Rain = 0
KWE1 220821Z 11006KT 06/03 A2993 RMK A01 T00580031  RH  082%=      5-min Rain = 0
KWE1 220822Z 11006KT 06/03 A2993 RMK A01 T00580031  RH  083%=      5-min Rain = 0
KWE1 220823Z 11006KT 06/03 A2993 RMK A01 T00580031  RH  083%=      5-min Rain = 0
KWE1 220824Z 11008KT 06/03 A2993 RMK A01 T00580031  RH  083%=      5-min Rain = 0
KWE1 220825Z 10008KT 06/03 A2993 RMK A01 T00580032  RH  083%=      5-min Rain = 0
KWE1 220826Z 11007KT 06/03 A2993 RMK A01 T00580032  RH  083%=      5-min Rain = 0
KWE1 220827Z 11007KT 06/03 A2993 RMK A01 T00580032  RH  083%=      5-min Rain = 0
KWE1 220828Z 11006KT 06/03 A2993 RMK A01 T00580032  RH  083%=      5-min Rain = 0
KWE1 220829Z 11008KT 06/03 A2993 RMK A01 T00580032  RH  084%=      5-min Rain = 0
KWE1 220830Z 11005KT 06/03 A2993 RMK A01 T00580032  RH  084%=      5-min Rain = 0
KWE1 220831Z 11005KT 06/03 A2993 RMK A01 T00580032  RH  084%=      5-min Rain = 0
KWE1 220832Z 12008KT 06/03 A2993 RMK A01 T00580032  RH  084%=      5-min Rain = 0
KWE1 220833Z 10006KT 06/03 A2993 RMK A01 T00570033  RH  084%=      5-min Rain = 0
KWE1 220834Z 10007KT 06/03 A2993 RMK A01 T00570033  RH  084%=      5-min Rain = 0
KWE1 220835Z 10007KT 06/03 A2993 RMK A01 T00570033  RH  084%=      5-min Rain = 0
KWE1 220836Z 10006KT 06/03 A2993 RMK A01 T00570033  RH  084%=      5-min Rain = 0
KWE1 220837Z 10005KT 06/03 A2993 RMK A01 T00570033  RH  085%=      5-min Rain = 0
KWE1 220838Z 09006KT 06/03 A2993 RMK A01 T00570033  RH  085%=      5-min Rain = 0
KWE1 220839Z 10006KT 06/03 A2993 RMK A01 T00570033  RH  085%=      5-min Rain = 0
KWE1 220840Z 10005KT 06/03 A2993 RMK A01 T00570033  RH  085%=      5-min Rain = 0
KWE1 220841Z 10006KT 06/03 A2993 RMK A01 T00570033  RH  085%=      5-min Rain = 0
KWE1 220842Z 11006KT 06/03 A2993 RMK A01 T00570033  RH  085%=      5-min Rain = 0
KWE1 220843Z 11005KT 06/03 A2993 RMK A01 T00570034  RH  085%=      5-min Rain = 0
KWE1 220844Z 10005KT 06/03 A2993 RMK A01 T00570034  RH  085%=      5-min Rain = 0
KWE1 220845Z 10006KT 06/03 A2993 RMK A01 T00570034  RH  085%=      5-min Rain = 0
KWE1 220846Z 11006KT 06/03 A2993 RMK A01 T00570034  RH  086%=      5-min Rain = 0
KWE1 220847Z 12006KT 06/04 A2993 RMK A01 T00570035  RH  086%=      5-min Rain = 0
KWE1 220848Z 11006KT 06/04 A2992 RMK A01 T00570035  RH  086%=      5-min Rain = 0
KWE1 220849Z 10007KT 06/04 A2992 RMK A01 T00570035  RH  086%=      5-min Rain = 0
KWE1 220850Z 10006KT 06/04 A2992 RMK A01 T00570036  RH  086%=      5-min Rain = 0
KWE1 220851Z 10006KT 06/04 A2992 RMK A01 T00570035  RH  086%=      5-min Rain = 0
KWE1 220852Z 10005KT 06/04 A2992 RMK A01 T00570036  RH  086%=      5-min Rain = 0
KWE1 220853Z 10005KT 06/04 A2992 RMK A01 T00570036  RH  086%=      5-min Rain = 0
KWE1 220854Z 09005KT 06/04 A2993 RMK A01 T00570036  RH  086%=      5-min Rain = 0
KWE1 220855Z 09007KT 06/04 A2993 RMK A01 T00570036  RH  086%=      5-min Rain = 0
KWE1 220856Z 09008KT 06/04 A2993 RMK A01 T00570035  RH  086%=      5-min Rain = 0
KWE1 220857Z 10007KT 06/04 A2993 RMK A01 T00570035  RH  086%=      5-min Rain = 0
KWE1 220858Z 10007KT 06/04 A2993 RMK A01 T00570036  RH  086%=      5-min Rain = 0
KWE1 220859Z 09007KT 06/04 A2993 RMK A01 T00570036  RH  086%=      5-min Rain = 0
KWE1 220900Z 09007KT 06/04 A2993 RMK A01 T00570036  RH  087%=      5-min Rain = 0
KWE1 220901Z 09007KT 06/04 A2993 RMK A01 T00570036  RH  087%=      5-min Rain = 0
KWE1 220902Z 10007KT 06/04 A2993 RMK A01 T00570036  RH  087%=      5-min Rain = 0
KWE1 220903Z 10008KT 06/04 A2993 RMK A01 T00570036  RH  087%=      5-min Rain = 0
KWE1 220904Z 10007KT 06/04 A2993 RMK A01 T00570037  RH  087%=      5-min Rain = 0
KWE1 220905Z 10006KT 06/04 A2993 RMK A01 T00570037  RH  087%=      5-min Rain = 0
KWE1 220906Z 10008KT 06/04 A2993 RMK A01 T00570037  RH  087%=      5-min Rain = 0
KWE1 220907Z 10007KT 06/04 A2993 RMK A01 T00570037  RH  087%=      5-min Rain = 0
KWE1 220908Z 10007KT 06/04 A2993 RMK A01 T00570037  RH  087%=      5-min Rain = 0
KWE1 220909Z 10009KT 06/04 A2993 RMK A01 T00570037  RH  087%=      5-min Rain = 0
KWE1 220910Z 10009KT 06/04 A2993 RMK A01 T00570037  RH  087%=      5-min Rain = 0
KWE1 220911Z 10007KT 06/04 A2993 RMK A01 T00570037  RH  087%=      5-min Rain = 0
KWE1 220912Z 11006KT 06/04 A2993 RMK A01 T00570037  RH  087%=      5-min Rain = 0
KWE1 220913Z 11008KT 06/04 A2993 RMK A01 T00570037  RH  087%=      5-min Rain = 0
KWE1 220914Z 10007KT 06/04 A2993 RMK A01 T00570037  RH  087%=      5-min Rain = 0
KWE1 220915Z 10007KT 06/04 A2993 RMK A01 T00570037  RH  087%=      5-min Rain = 0
KWE1 220916Z 12007KT 06/04 A2993 RMK A01 T00570037  RH  087%=      5-min Rain = 0
KWE1 220917Z 10007KT 06/04 A2993 RMK A01 T00570037  RH  087%=      5-min Rain = 0
KWE1 220918Z 10007KT 06/04 A2993 RMK A01 T00570037  RH  087%=      5-min Rain = 0
KWE1 220919Z 10008KT 06/04 A2993 RMK A01 T00570037  RH  087%=      5-min Rain = 0
KWE1 220920Z 10007KT 06/04 A2993 RMK A01 T00570037  RH  087%=      5-min Rain = 0
KWE1 220921Z 10008KT 06/04 A2993 RMK A01 T00570037  RH  087%=      5-min Rain = 0
KWE1 220922Z 10007KT 06/04 A2993 RMK A01 T00570037  RH  087%=      5-min Rain = 0
KWE1 220923Z 09008KT 06/04 A2993 RMK A01 T00570037  RH  087%=      5-min Rain = 0
KWE1 220924Z 10007KT 06/04 A2993 RMK A01 T00570037  RH  087%=      5-min Rain = 0
KWE1 220925Z 11006KT 06/04 A2993 RMK A01 T00570037  RH  087%=      5-min Rain = 0
KWE1 220926Z 11008KT 06/04 A2993 RMK A01 T00570037  RH  087%=      5-min Rain = 0
KWE1 220927Z 10008KT 06/04 A2993 RMK A01 T00570037  RH  087%=      5-min Rain = 0
KWE1 220928Z 10008KT 06/04 A2993 RMK A01 T00570037  RH  087%=      5-min Rain = 0
KWE1 220929Z 10009KT 06/04 A2993 RMK A01 T00570037  RH  087%=      5-min Rain = 0
KWE1 220930Z 10007KT 06/04 A2993 RMK A01 T00570037  RH  087%=      5-min Rain = 0
KWE1 220931Z 09008KT 06/04 A2993 RMK A01 T00570037  RH  087%=      5-min Rain = 0
KWE1 220932Z 09008KT 06/04 A2993 RMK A01 T00570036  RH  087%=      5-min Rain = 0
KWE1 220933Z 09008KT 06/04 A2992 RMK A01 T00570036  RH  087%=      5-min Rain = 0
KWE1 220934Z 09008KT 06/04 A2992 RMK A01 T00570037  RH  087%=      5-min Rain = 0
KWE1 220935Z 09009KT 06/04 A2992 RMK A01 T00570036  RH  087%=      5-min Rain = 0
KWE1 220936Z 09009KT 06/04 A2992 RMK A01 T00570036  RH  087%=      5-min Rain = 0
KWE1 220937Z 09007KT 06/04 A2992 RMK A01 T00570036  RH  087%=      5-min Rain = 0
KWE1 220938Z 09006KT 06/04 A2992 RMK A01 T00570036  RH  087%=      5-min Rain = 0
KWE1 220939Z 08007KT 06/04 A2992 RMK A01 T00570036  RH  087%=      5-min Rain = 0
KWE1 220940Z 08006KT 06/04 A2992 RMK A01 T00570036  RH  087%=      5-min Rain = 0
KWE1 220941Z 09007KT 06/04 A2992 RMK A01 T00560036  RH  087%=      5-min Rain = 0
KWE1 220942Z 09008KT 06/04 A2992 RMK A01 T00560036  RH  087%=      5-min Rain = 0
KWE1 220943Z 08007KT 06/04 A2992 RMK A01 T00560036  RH  087%=      5-min Rain = 0
KWE1 220944Z 09008KT 06/04 A2992 RMK A01 T00560036  RH  087%=      5-min Rain = 0
KWE1 220945Z 08007KT 06/04 A2992 RMK A01 T00550036  RH  088%=      5-min Rain = 0
KWE1 220946Z 08008KT 06/04 A2992 RMK A01 T00550036  RH  088%=      5-min Rain = 0
KWE1 220947Z 08007KT 06/04 A2992 RMK A01 T00550037  RH  088%=      5-min Rain = 0
KWE1 220948Z 08008KT 06/04 A2992 RMK A01 T00550037  RH  088%=      5-min Rain = 0
KWE1 220949Z 09007KT 06/04 A2992 RMK A01 T00550037  RH  088%=      5-min Rain = 0
KWE1 220950Z 08008KT 05/04 A2992 RMK A01 T00540037  RH  089%=      5-min Rain = 0
KWE1 220951Z 08009KT 05/04 A2992 RMK A01 T00540037  RH  089%=      5-min Rain = 0
KWE1 220952Z 09010KT 05/04 A2992 RMK A01 T00540038  RH  089%=      5-min Rain = 0
KWE1 220953Z 09009KT 05/04 A2992 RMK A01 T00540038  RH  089%=      5-min Rain = 0
KWE1 220954Z 08008KT 05/04 A2992 RMK A01 T00540039  RH  090%=      5-min Rain = 0
KWE1 220955Z 08009KT 05/04 A2992 RMK A01 T00540039  RH  090%=      5-min Rain = 0
KWE1 220956Z 08007KT 05/04 A2992 RMK A01 T00540039  RH  090%=      5-min Rain = 0
KWE1 220957Z 08007KT 05/04 A2992 RMK A01 T00540039  RH  090%=      5-min Rain = 0
KWE1 220958Z 09007KT 05/04 A2992 RMK A01 T00530039  RH  091%=      5-min Rain = 0
KWE1 220959Z 10007KT 05/04 A2992 RMK A01 T00530040  RH  091%=      5-min Rain = 0
KWE1 221000Z 10007KT 05/04 A2993 RMK A01 T00530040  RH  091%=      5-min Rain = 0
KWE1 221001Z 09007KT 05/04 A2993 RMK A01 T00530040  RH  091%=      5-min Rain = 0
KWE1 221002Z 09006KT 05/04 A2993 RMK A01 T00540041  RH  091%=      5-min Rain = 0
KWE1 221003Z 09007KT 05/04 A2993 RMK A01 T00540041  RH  091%=      5-min Rain = 0
KWE1 221004Z 09007KT 05/04 A2993 RMK A01 T00540041  RH  092%=      5-min Rain = 0
KWE1 221005Z 09007KT 05/04 A2993 RMK A01 T00530041  RH  092%=      5-min Rain = 0
KWE1 221006Z 08007KT 05/04 A2993 RMK A01 T00540041  RH  092%=      5-min Rain = 0
KWE1 221007Z 08007KT 05/04 A2993 RMK A01 T00530041  RH  092%=      5-min Rain = 0
KWE1 221008Z 09007KT 05/04 A2993 RMK A01 T00530041  RH  092%=      5-min Rain = 0
KWE1 221009Z 09006KT 05/04 A2993 RMK A01 T00530041  RH  092%=      5-min Rain = 0
KWE1 221010Z 10006KT 05/04 A2993 RMK A01 T00530041  RH  092%=      5-min Rain = 0
KWE1 221011Z 09008KT 05/04 A2993 RMK A01 T00530041  RH  092%=      5-min Rain = 0
KWE1 221012Z 09005KT 05/04 A2993 RMK A01 T00530041  RH  092%=      5-min Rain = 0
KWE1 221013Z 09006KT 05/04 A2993 RMK A01 T00530042  RH  092%=      5-min Rain = 0
KWE1 221014Z 10008KT 05/04 A2993 RMK A01 T00530042  RH  092%=      5-min Rain = 0
KWE1 221015Z 10007KT 05/04 A2993 RMK A01 T00530042  RH  092%=      5-min Rain = 0
KWE1 221016Z 09005KT 05/04 A2993 RMK A01 T00530042  RH  093%=      5-min Rain = 0
KWE1 221017Z 10005KT 05/04 A2994 RMK A01 T00530042  RH  093%=      5-min Rain = 0
KWE1 221018Z 10007KT 05/04 A2994 RMK A01 T00530042  RH  093%=      5-min Rain = 0
KWE1 221019Z 10007KT 05/04 A2994 RMK A01 T00530042  RH  093%=      5-min Rain = 0
KWE1 221020Z 10007KT 05/04 A2994 RMK A01 T00530042  RH  093%=      5-min Rain = 0
KWE1 221021Z 10007KT 05/04 A2994 RMK A01 T00530042  RH  093%=      5-min Rain = 0
KWE1 221022Z 09007KT 05/04 A2994 RMK A01 T00530043  RH  093%=      5-min Rain = 0
KWE1 221023Z 10007KT 05/04 A2994 RMK A01 T00530043  RH  093%=      5-min Rain = 0
KWE1 221024Z 10006KT 05/04 A2994 RMK A01 T00530043  RH  093%=      5-min Rain = 0
KWE1 221025Z 10006KT 05/04 A2994 RMK A01 T00530043  RH  093%=      5-min Rain = 0
KWE1 221026Z 10006KT 05/04 A2993 RMK A01 T00530043  RH  093%=      5-min Rain = 0
KWE1 221027Z 11006KT 05/04 A2993 RMK A01 T00530043  RH  093%=      5-min Rain = 0
KWE1 221028Z 10007KT 05/04 A2994 RMK A01 T00530043  RH  093%=      5-min Rain = 0
KWE1 221029Z 10006KT 05/04 A2994 RMK A01 T00530043  RH  093%=      5-min Rain = 0
KWE1 221030Z 10006KT 05/04 A2994 RMK A01 T00530043  RH  093%=      5-min Rain = 0
KWE1 221031Z 10007KT 05/04 A2994 RMK A01 T00530043  RH  094%=      5-min Rain = 0
KWE1 221032Z 11007KT 05/04 A2994 RMK A01 T00530043  RH  094%=      5-min Rain = 0
KWE1 221033Z 10007KT 05/04 A2994 RMK A01 T00530043  RH  094%=      5-min Rain = 0
KWE1 221034Z 10007KT 05/04 A2994 RMK A01 T00530043  RH  094%=      5-min Rain = 0
KWE1 221035Z 10007KT 05/04 A2994 RMK A01 T00530044  RH  094%=      5-min Rain = 0
KWE1 221036Z 10006KT 05/04 A2994 RMK A01 T00530044  RH  094%=      5-min Rain = 0
KWE1 221037Z 10006KT 05/04 A2994 RMK A01 T00530044  RH  094%=      5-min Rain = 0
KWE1 221038Z 10006KT 05/04 A2994 RMK A01 T00540044  RH  094%=      5-min Rain = 0
KWE1 221039Z 09005KT 05/04 A2994 RMK A01 T00530044  RH  094%=      5-min Rain = 0
KWE1 221040Z 09007KT 05/04 A2994 RMK A01 T00540044  RH  094%=      5-min Rain = 0
KWE1 221041Z 10007KT 05/04 A2994 RMK A01 T00530044  RH  094%=      5-min Rain = 0
KWE1 221042Z 10008KT 05/04 A2994 RMK A01 T00530044  RH  094%=      5-min Rain = 0
KWE1 221043Z 10007KT 05/04 A2994 RMK A01 T00530044  RH  094%=      5-min Rain = 0
KWE1 221044Z 10006KT 05/04 A2994 RMK A01 T00530044  RH  094%=      5-min Rain = 0
KWE1 221045Z 10007KT 05/04 A2994 RMK A01 T00530044  RH  094%=      5-min Rain = 0
KWE1 221046Z 10006KT 05/04 A2994 RMK A01 T00530044  RH  094%=      5-min Rain = 0
KWE1 221047Z 10007KT 05/04 A2995 RMK A01 T00530044  RH  094%=      5-min Rain = 0
KWE1 221048Z 11008KT 05/04 A2995 RMK A01 T00530044  RH  094%=      5-min Rain = 0
KWE1 221049Z 11007KT 05/04 A2995 RMK A01 T00530044  RH  094%=      5-min Rain = 0
KWE1 221050Z 10006KT 05/04 A2995 RMK A01 T00530044  RH  094%=      5-min Rain = 0
KWE1 221051Z 10006KT 05/04 A2995 RMK A01 T00530044  RH  094%=      5-min Rain = 0
KWE1 221052Z 10006KT 05/04 A2995 RMK A01 T00530044  RH  094%=      5-min Rain = 0
KWE1 221053Z 10006KT 05/04 A2995 RMK A01 T00520044  RH  094%=      5-min Rain = 0
KWE1 221054Z 10007KT 05/04 A2995 RMK A01 T00530044  RH  094%=      5-min Rain = 0
KWE1 221055Z 10005KT 05/04 A2995 RMK A01 T00530044  RH  094%=      5-min Rain = 0
KWE1 221056Z 09006KT 05/04 A2995 RMK A01 T00530044  RH  094%=      5-min Rain = 0
KWE1 221057Z 10006KT 05/04 A2996 RMK A01 T00530044  RH  094%=      5-min Rain = 0
KWE1 221058Z 10006KT 05/04 A2996 RMK A01 T00530044  RH  094%=      5-min Rain = 0
KWE1 221059Z 09006KT 05/04 A2996 RMK A01 T00520044  RH  094%=      5-min Rain = 0
KWE1 221100Z 10004KT 05/04 A2996 RMK A01 T00520044  RH  094%=      5-min Rain = 0
KWE1 221101Z 10006KT 05/04 A2996 RMK A01 T00520044  RH  095%=      5-min Rain = 0
KWE1 221102Z 11005KT 05/04 A2996 RMK A01 T00530044  RH  095%=      5-min Rain = 0
KWE1 221103Z 10004KT 05/04 A2996 RMK A01 T00520044  RH  095%=      5-min Rain = 0
KWE1 221104Z 10004KT 05/05 A2996 RMK A01 T00530045  RH  095%=      5-min Rain = 0
KWE1 221105Z 10005KT 05/05 A2996 RMK A01 T00530045  RH  095%=      5-min Rain = 0
KWE1 221106Z 10005KT 05/05 A2996 RMK A01 T00530045  RH  095%=      5-min Rain = 0
KWE1 221107Z 10004KT 05/05 A2996 RMK A01 T00520045  RH  095%=      5-min Rain = 0
KWE1 221108Z 09004KT 05/05 A2996 RMK A01 T00530045  RH  095%=      5-min Rain = 0
KWE1 221109Z 10004KT 05/04 A2996 RMK A01 T00520044  RH  095%=      5-min Rain = 0
KWE1 221110Z 10005KT 05/05 A2996 RMK A01 T00530045  RH  095%=      5-min Rain = 0
KWE1 221111Z 10004KT 05/05 A2996 RMK A01 T00520045  RH  095%=      5-min Rain = 0
KWE1 221112Z 09003KT 05/05 A2996 RMK A01 T00520045  RH  095%=      5-min Rain = 0
KWE1 221113Z 09004KT 05/05 A2996 RMK A01 T00520045  RH  095%=      5-min Rain = 0
KWE1 221114Z 09005KT 05/05 A2996 RMK A01 T00530045  RH  095%=      5-min Rain = 0
KWE1 221115Z 10006KT 05/05 A2996 RMK A01 T00530045  RH  095%=      5-min Rain = 0
KWE1 221116Z 09004KT 05/05 A2997 RMK A01 T00530045  RH  095%=      5-min Rain = 0
KWE1 221117Z 08005KT 05/05 A2996 RMK A01 T00530045  RH  095%=      5-min Rain = 0
KWE1 221118Z 08003KT 05/05 A2996 RMK A01 T00530045  RH  095%=      5-min Rain = 0
KWE1 221119Z 08004KT 05/05 A2996 RMK A01 T00530045  RH  095%=      5-min Rain = 0
KWE1 221120Z 08004KT 05/05 A2996 RMK A01 T00520045  RH  095%=      5-min Rain = 0
KWE1 221121Z 08004KT 05/05 A2996 RMK A01 T00530045  RH  095%=      5-min Rain = 0
KWE1 221122Z 07004KT 05/05 A2996 RMK A01 T00520045  RH  095%=      5-min Rain = 0
KWE1 221123Z 08004KT 05/05 A2996 RMK A01 T00520045  RH  095%=      5-min Rain = 0
KWE1 221124Z 08005KT 05/05 A2996 RMK A01 T00520045  RH  095%=      5-min Rain = 0
KWE1 221125Z 08004KT 05/05 A2996 RMK A01 T00530045  RH  095%=      5-min Rain = 0
KWE1 221126Z 07004KT 05/05 A2996 RMK A01 T00530045  RH  095%=      5-min Rain = 0
KWE1 221127Z 07004KT 05/05 A2996 RMK A01 T00530045  RH  095%=      5-min Rain = 0
KWE1 221128Z 08003KT 05/05 A2996 RMK A01 T00520045  RH  095%=      5-min Rain = 0
KWE1 221129Z 08004KT 05/05 A2997 RMK A01 T00520045  RH  095%=      5-min Rain = 0
KWE1 221130Z 08004KT 05/05 A2996 RMK A01 T00530045  RH  095%=      5-min Rain = 0
KWE1 221131Z 08004KT 05/05 A2996 RMK A01 T00530045  RH  095%=      5-min Rain = 0
KWE1 221132Z 09004KT 05/05 A2997 RMK A01 T00530045  RH  095%=      5-min Rain = 0
KWE1 221133Z 08004KT 05/05 A2997 RMK A01 T00530045  RH  095%=      5-min Rain = 0
KWE1 221134Z 08005KT 05/05 A2996 RMK A01 T00530045  RH  095%=      5-min Rain = 0
KWE1 221135Z 08006KT 05/05 A2996 RMK A01 T00530046  RH  095%=      5-min Rain = 0
KWE1 221136Z 08005KT 05/05 A2997 RMK A01 T00530046  RH  095%=      5-min Rain = 0
KWE1 221137Z 09004KT 05/05 A2997 RMK A01 T00530046  RH  095%=      5-min Rain = 0
KWE1 221138Z 07004KT 05/05 A2997 RMK A01 T00530046  RH  095%=      5-min Rain = 0
KWE1 221139Z 06005KT 05/05 A2996 RMK A01 T00530046  RH  095%=      5-min Rain = 0
KWE1 221140Z 08004KT 05/05 A2996 RMK A01 T00530046  RH  095%=      5-min Rain = 0
KWE1 221141Z 10005KT 05/05 A2997 RMK A01 T00530046  RH  095%=      5-min Rain = 0
KWE1 221142Z 10004KT 05/05 A2997 RMK A01 T00530046  RH  095%=      5-min Rain = 0
KWE1 221143Z 08005KT 05/05 A2997 RMK A01 T00530046  RH  095%=      5-min Rain = 0
KWE1 221144Z 08005KT 05/05 A2997 RMK A01 T00530046  RH  095%=      5-min Rain = 0
KWE1 221145Z 09005KT 05/05 A2997 RMK A01 T00530046  RH  095%=      5-min Rain = 0
KWE1 221146Z 10005KT 05/05 A2998 RMK A01 T00530046  RH  095%=      5-min Rain = 0
KWE1 221147Z 09005KT 05/05 A2997 RMK A01 T00530046  RH  095%=      5-min Rain = 0
KWE1 221148Z 08005KT 05/05 A2997 RMK A01 T00530046  RH  095%=      5-min Rain = 0
KWE1 221149Z 08005KT 05/05 A2997 RMK A01 T00530046  RH  095%=      5-min Rain = 0
KWE1 221150Z 09005KT 05/05 A2998 RMK A01 T00530046  RH  095%=      5-min Rain = 0
KWE1 221151Z 09004KT 05/05 A2998 RMK A01 T00530046  RH  095%=      5-min Rain = 0
KWE1 221152Z 09004KT 05/05 A2998 RMK A01 T00530046  RH  095%=      5-min Rain = 0
KWE1 221153Z 08004KT 05/05 A2998 RMK A01 T00530046  RH  095%=      5-min Rain = 0
KWE1 221154Z 08005KT 05/05 A2998 RMK A01 T00530046  RH  095%=      5-min Rain = 0
KWE1 221155Z 08005KT 05/05 A2998 RMK A01 T00530046  RH  095%=      5-min Rain = 0
KWE1 221156Z 08004KT 05/05 A2998 RMK A01 T00530046  RH  095%=      5-min Rain = 0
KWE1 221157Z 08004KT 05/05 A2998 RMK A01 T00530046  RH  095%=      5-min Rain = 0
KWE1 221158Z 07005KT 05/05 A2998 RMK A01 T00530046  RH  095%=      5-min Rain = 0
KWE1 221159Z 08005KT 05/05 A2998 RMK A01 T00540047  RH  095%=      5-min Rain = 0
KWE1 221200Z 08005KT 05/05 A2998 RMK A01 T00540046  RH  095%=      5-min Rain = 0
KWE1 221201Z 07004KT 05/05 A2998 RMK A01 T00530046  RH  095%=      5-min Rain = 0
KWE1 221202Z 07005KT 05/05 A2998 RMK A01 T00540046  RH  095%=      5-min Rain = 0
KWE1 221203Z 07004KT 05/05 A2998 RMK A01 T00530046  RH  095%=      5-min Rain = 0
KWE1 221204Z 07004KT 05/05 A2998 RMK A01 T00540047  RH  095%=      5-min Rain = 0
KWE1 221205Z 07005KT 05/05 A2998 RMK A01 T00530046  RH  095%=      5-min Rain = 0
KWE1 221206Z 07006KT 05/05 A2998 RMK A01 T00530046  RH  095%=      5-min Rain = 0
KWE1 221207Z 06007KT 05/05 A2998 RMK A01 T00530046  RH  095%=      5-min Rain = 0
KWE1 221208Z 07004KT 05/05 A2998 RMK A01 T00530046  RH  095%=      5-min Rain = 0
KWE1 221209Z 07002KT 05/05 A2998 RMK A01 T00530046  RH  095%=      5-min Rain = 0
KWE1 221210Z 09003KT 05/05 A2998 RMK A01 T00540047  RH  095%=      5-min Rain = 0
KWE1 221211Z 09002KT 05/05 A2998 RMK A01 T00540047  RH  095%=      5-min Rain = 0
KWE1 221212Z 09003KT 05/05 A2998 RMK A01 T00540047  RH  095%=      5-min Rain = 0
KWE1 221213Z 08004KT 05/05 A2998 RMK A01 T00540047  RH  095%=      5-min Rain = 0
KWE1 221214Z 08005KT 05/05 A2998 RMK A01 T00540047  RH  095%=      5-min Rain = 0
KWE1 221215Z 09003KT 05/05 A2999 RMK A01 T00540047  RH  095%=      5-min Rain = 0
KWE1 221216Z 08004KT 05/05 A2998 RMK A01 T00540047  RH  095%=      5-min Rain = 0
KWE1 221217Z 08005KT 05/05 A2999 RMK A01 T00540047  RH  095%=      5-min Rain = 0
KWE1 221218Z 08005KT 05/05 A2999 RMK A01 T00540047  RH  095%=      5-min Rain = 0
KWE1 221219Z 08005KT 05/05 A2999 RMK A01 T00540047  RH  095%=      5-min Rain = 0
KWE1 221220Z 07004KT 05/05 A2999 RMK A01 T00540047  RH  095%=      5-min Rain = 0
KWE1 221221Z 08004KT 05/05 A2999 RMK A01 T00540047  RH  095%=      5-min Rain = 0
KWE1 221222Z 08004KT 06/05 A2999 RMK A01 T00550048  RH  095%=      5-min Rain = 0
KWE1 221223Z 06003KT 05/05 A2999 RMK A01 T00540047  RH  095%=      5-min Rain = 0
KWE1 221224Z 08003KT 05/05 A2999 RMK A01 T00540048  RH  095%=      5-min Rain = 0
KWE1 221225Z 07003KT 06/05 A2999 RMK A01 T00550048  RH  095%=      5-min Rain = 0
KWE1 221226Z 07004KT 06/05 A2999 RMK A01 T00550048  RH  095%=      5-min Rain = 0
KWE1 221227Z 06004KT 06/05 A2999 RMK A01 T00550048  RH  095%=      5-min Rain = 0
KWE1 221228Z 06005KT 06/05 A2999 RMK A01 T00550048  RH  095%=      5-min Rain = 0
KWE1 221229Z 06003KT 06/05 A2999 RMK A01 T00550048  RH  095%=      5-min Rain = 0
KWE1 221230Z 05003KT 06/05 A2999 RMK A01 T00550048  RH  095%=      5-min Rain = 0
KWE1 221231Z 02003KT 06/05 A2999 RMK A01 T00550048  RH  095%=      5-min Rain = 0
KWE1 221232Z 02004KT 06/05 A2999 RMK A01 T00550048  RH  095%=      5-min Rain = 0
KWE1 221233Z 03004KT 06/05 A2999 RMK A01 T00550048  RH  095%=      5-min Rain = 0
KWE1 221234Z 02004KT 06/05 A2999 RMK A01 T00550048  RH  095%=      5-min Rain = 0
KWE1 221235Z 03004KT 06/05 A2999 RMK A01 T00550048  RH  095%=      5-min Rain = 0
KWE1 221236Z 03004KT 06/05 A2999 RMK A01 T00550048  RH  095%=      5-min Rain = 0
KWE1 221237Z 04003KT 06/05 A2999 RMK A01 T00550048  RH  095%=      5-min Rain = 0
KWE1 221238Z 03003KT 05/05 A2999 RMK A01 T00540048  RH  095%=      5-min Rain = 0
KWE1 221239Z 04004KT 05/05 A2999 RMK A01 T00540048  RH  095%=      5-min Rain = 0
KWE1 221240Z 04002KT 05/05 A2999 RMK A01 T00540048  RH  095%=      5-min Rain = 0
KWE1 221241Z 05003KT 06/05 A2999 RMK A01 T00550048  RH  095%=      5-min Rain = 0
KWE1 221242Z 05003KT 05/05 A30 RMK A01 T00540048  RH  095%=      5-min Rain = 0
KWE1 221243Z 08003KT 05/05 A30 RMK A01 T00540048  RH  095%=      5-min Rain = 0
KWE1 221244Z 06003KT 05/05 A30 RMK A01 T00540048  RH  096%=      5-min Rain = 0
KWE1 221245Z 06003KT 05/05 A30 RMK A01 T00540048  RH  096%=      5-min Rain = 0
KWE1 221246Z 05002KT 05/05 A30 RMK A01 T00540048  RH  096%=      5-min Rain = 0
KWE1 221247Z 06002KT 05/05 A30 RMK A01 T00540048  RH  095%=      5-min Rain = 0
KWE1 221248Z 06003KT 05/05 A30 RMK A01 T00540048  RH  096%=      5-min Rain = 0
KWE1 221249Z 06002KT 05/05 A30 RMK A01 T00540048  RH  095%=      5-min Rain = 0
KWE1 221250Z 06002KT 06/05 A30 RMK A01 T00550048  RH  095%=      5-min Rain = 0
KWE1 221251Z 07004KT 06/05 A30 RMK A01 T00550048  RH  096%=      5-min Rain = 0
KWE1 221252Z 06004KT 06/05 A30 RMK A01 T00550048  RH  096%=      5-min Rain = 0
KWE1 221253Z 07003KT 06/05 A30 RMK A01 T00550048  RH  096%=      5-min Rain = 0
KWE1 221254Z 06002KT 06/05 A30 RMK A01 T00550048  RH  096%=      5-min Rain = 0
KWE1 221255Z 05001KT 06/05 A30 RMK A01 T00550048  RH  096%=      5-min Rain = 0
KWE1 221256Z 04001KT 06/05 A30 RMK A01 T00550048  RH  096%=      5-min Rain = 0
KWE1 221257Z 06002KT 06/05 A30 RMK A01 T00550048  RH  096%=      5-min Rain = 0
KWE1 221258Z 04002KT 06/05 A30 RMK A01 T00550048  RH  096%=      5-min Rain = 0
KWE1 221259Z 04002KT 06/05 A30 RMK A01 T00550048  RH  096%=      5-min Rain = 0
KWE1 221300Z 03003KT 06/05 A30 RMK A01 T00550048  RH  096%=      5-min Rain = 0
KWE1 221301Z 04003KT 06/05 A30 RMK A01 T00550048  RH  096%=      5-min Rain = 0
KWE1 221302Z 03003KT 06/05 A30 RMK A01 T00550048  RH  096%=      5-min Rain = 0
KWE1 221303Z 04003KT 06/05 A30 RMK A01 T00550048  RH  096%=      5-min Rain = 0
KWE1 221304Z 04003KT 06/05 A30 RMK A01 T00550048  RH  096%=      5-min Rain = 0
KWE1 221305Z 04003KT 06/05 A30 RMK A01 T00550048  RH  096%=      5-min Rain = 0
KWE1 221306Z 05003KT 06/05 A30 RMK A01 T00550048  RH  096%=      5-min Rain = 0
KWE1 221307Z 05004KT 06/05 A30 RMK A01 T00550049  RH  096%=      5-min Rain = 0
KWE1 221308Z 06004KT 06/05 A30 RMK A01 T00550049  RH  096%=      5-min Rain = 0
KWE1 221309Z 06004KT 06/05 A30 RMK A01 T00550049  RH  096%=      5-min Rain = 0
KWE1 221310Z 06005KT 06/05 A30 RMK A01 T00550049  RH  096%=      5-min Rain = 0
KWE1 221311Z 06005KT 06/05 A2999 RMK A01 T00550049  RH  096%=      5-min Rain = 0
KWE1 221312Z 07005KT 06/05 A2999 RMK A01 T00550049  RH  096%=      5-min Rain = 0
KWE1 221313Z 06005KT 06/05 A2999 RMK A01 T00550049  RH  096%=      5-min Rain = 0
KWE1 221314Z 06004KT 06/05 A2999 RMK A01 T00550049  RH  096%=      5-min Rain = 0
KWE1 221315Z 06004KT 06/05 A2999 RMK A01 T00550049  RH  096%=      5-min Rain = 0
KWE1 221316Z 06003KT 06/05 A2999 RMK A01 T00560050  RH  096%=      5-min Rain = 0
KWE1 221317Z 04002KT 06/05 A2999 RMK A01 T00560049  RH  096%=      5-min Rain = 0
KWE1 221318Z 05002KT 06/05 A2999 RMK A01 T00560049  RH  096%=      5-min Rain = 0
KWE1 221319Z 04003KT 06/05 A2999 RMK A01 T00560049  RH  096%=      5-min Rain = 0
KWE1 221320Z 04003KT 06/05 A2999 RMK A01 T00560049  RH  096%=      5-min Rain = 0
KWE1 221321Z 04005KT 06/05 A2999 RMK A01 T00560049  RH  096%=      5-min Rain = 0
KWE1 221322Z 04004KT 06/05 A2999 RMK A01 T00560049  RH  096%=      5-min Rain = 0
KWE1 221323Z 05005KT 06/05 A2999 RMK A01 T00560049  RH  096%=      5-min Rain = 0
KWE1 221324Z 04005KT 06/05 A2999 RMK A01 T00560049  RH  096%=      5-min Rain = 0
KWE1 221325Z 04004KT 06/05 A2999 RMK A01 T00560049  RH  096%=      5-min Rain = 0
KWE1 221326Z 06004KT 06/05 A2999 RMK A01 T00560050  RH  096%=      5-min Rain = 0
KWE1 221327Z 05004KT 06/05 A2999 RMK A01 T00560050  RH  096%=      5-min Rain = 0
KWE1 221328Z 06004KT 06/05 A2999 RMK A01 T00560050  RH  096%=      5-min Rain = 0
KWE1 221329Z 06004KT 06/05 A2999 RMK A01 T00560050  RH  096%=      5-min Rain = 0
KWE1 221330Z 05004KT 06/05 A2999 RMK A01 T00560050  RH  096%=      5-min Rain = 0
KWE1 221331Z 06004KT 06/05 A2999 RMK A01 T00570050  RH  096%=      5-min Rain = 0
KWE1 221332Z 06004KT 06/05 A2999 RMK A01 T00560050  RH  096%=      5-min Rain = 0
KWE1 221333Z 05004KT 06/05 A2999 RMK A01 T00570050  RH  096%=      5-min Rain = 0
KWE1 221334Z 05004KT 06/05 A2999 RMK A01 T00570050  RH  096%=      5-min Rain = 0
KWE1 221335Z 05004KT 06/05 A2999 RMK A01 T00570050  RH  096%=      5-min Rain = 0
KWE1 221336Z 06003KT 06/05 A2999 RMK A01 T00560050  RH  096%=      5-min Rain = 0
KWE1 221337Z 06003KT 06/05 A2999 RMK A01 T00560050  RH  096%=      5-min Rain = 0
KWE1 221338Z 05003KT 06/05 A2999 RMK A01 T00560050  RH  096%=      5-min Rain = 0
KWE1 221339Z 06004KT 06/05 A2999 RMK A01 T00560050  RH  096%=      5-min Rain = 0
KWE1 221340Z 06004KT 06/05 A2999 RMK A01 T00560050  RH  096%=      5-min Rain = 0
KWE1 221341Z 06004KT 06/05 A2999 RMK A01 T00560050  RH  096%=      5-min Rain = 0
KWE1 221342Z 07005KT 06/05 A2999 RMK A01 T00560050  RH  096%=      5-min Rain = 0
KWE1 221343Z 07004KT 06/05 A2999 RMK A01 T00560050  RH  096%=      5-min Rain = 0
KWE1 221344Z 07004KT 06/05 A2999 RMK A01 T00560050  RH  096%=      5-min Rain = 0
KWE1 221345Z 07006KT 06/05 A2999 RMK A01 T00560050  RH  096%=      5-min Rain = 0
KWE1 221346Z 06006KT 06/05 A2999 RMK A01 T00560050  RH  096%=      5-min Rain = 0
KWE1 221347Z 06005KT 06/05 A2999 RMK A01 T00560050  RH  096%=      5-min Rain = 0
KWE1 221348Z 06006KT 06/05 A2999 RMK A01 T00560050  RH  096%=      5-min Rain = 0
KWE1 221349Z 06006KT 06/05 A2999 RMK A01 T00560050  RH  096%=      5-min Rain = 0
KWE1 221350Z 06005KT 06/05 A2999 RMK A01 T00560050  RH  096%=      5-min Rain = 0
KWE1 221351Z 06005KT 06/05 A2999 RMK A01 T00560050  RH  096%=      5-min Rain = 0
KWE1 221352Z 06006KT 06/05 A2999 RMK A01 T00560050  RH  096%=      5-min Rain = 0
KWE1 221353Z 06005KT 06/05 A2999 RMK A01 T00560050  RH  096%=      5-min Rain = 0
KWE1 221354Z 07004KT 06/05 A2999 RMK A01 T00560050  RH  096%=      5-min Rain = 0
KWE1 221355Z 07004KT 06/05 A2999 RMK A01 T00560050  RH  096%=      5-min Rain = 0
KWE1 221356Z 07004KT 06/05 A2999 RMK A01 T00560050  RH  096%=      5-min Rain = 0
KWE1 221357Z 07004KT 06/05 A2999 RMK A01 T00570050  RH  096%=      5-min Rain = 0
KWE1 221358Z 07004KT 06/05 A2999 RMK A01 T00570050  RH  096%=      5-min Rain = 0
KWE1 221359Z 07005KT 06/05 A2999 RMK A01 T00570050  RH  096%=      5-min Rain = 0
KWE1 221400Z 07005KT 06/05 A2999 RMK A01 T00570050  RH  096%=      5-min Rain = 0
KWE1 221401Z 07005KT 06/05 A2999 RMK A01 T00570050  RH  096%=      5-min Rain = 0
KWE1 221402Z 06004KT 06/05 A2999 RMK A01 T00560050  RH  096%=      5-min Rain = 0
KWE1 221403Z 06004KT 06/05 A2999 RMK A01 T00570050  RH  096%=      5-min Rain = 0
KWE1 221404Z 06005KT 06/05 A2999 RMK A01 T00570051  RH  096%=      5-min Rain = 0
KWE1 221405Z 07004KT 06/05 A2999 RMK A01 T00570050  RH  096%=      5-min Rain = 0
KWE1 221406Z 06004KT 06/05 A2999 RMK A01 T00570051  RH  096%=      5-min Rain = 0
KWE1 221407Z 06005KT 06/05 A2999 RMK A01 T00570051  RH  096%=      5-min Rain = 0
KWE1 221408Z 06004KT 06/05 A2999 RMK A01 T00570051  RH  096%=      5-min Rain = 0
KWE1 221409Z 07004KT 06/05 A2999 RMK A01 T00570051  RH  096%=      5-min Rain = 0
KWE1 221410Z 08004KT 06/05 A2999 RMK A01 T00570051  RH  096%=      5-min Rain = 0
KWE1 221411Z 08004KT 06/05 A2999 RMK A01 T00580051  RH  096%=      5-min Rain = 0
KWE1 221412Z 07004KT 06/05 A2999 RMK A01 T00580052  RH  096%=      5-min Rain = 0
KWE1 221413Z 08004KT 06/05 A2999 RMK A01 T00580052  RH  096%=      5-min Rain = 0
KWE1 221414Z 07004KT 06/05 A30 RMK A01 T00580052  RH  096%=      5-min Rain = 0.01
KWE1 221415Z 08004KT 06/05 A30 RMK A01 T00580052  RH  096%=      5-min Rain = 0
KWE1 221416Z 07005KT 06/05 A30 RMK A01 T00580052  RH  096%=      5-min Rain = 0
KWE1 221417Z 06005KT 06/05 A30 RMK A01 T00580052  RH  096%=      5-min Rain = 0
KWE1 221418Z 08005KT 06/05 A30 RMK A01 T00580052  RH  096%=      5-min Rain = 0
KWE1 221419Z 07005KT 06/05 A30 RMK A01 T00580052  RH  096%=      5-min Rain = 0
KWE1 221420Z 07004KT 06/05 A30 RMK A01 T00590052  RH  096%=      5-min Rain = 0
KWE1 221421Z 07004KT 06/05 A2999 RMK A01 T00590053  RH  096%=      5-min Rain = 0
KWE1 221422Z 07005KT 06/05 A2999 RMK A01 T00590053  RH  096%=      5-min Rain = 0
KWE1 221423Z 08005KT 06/05 A2999 RMK A01 T00590053  RH  096%=      5-min Rain = 0
KWE1 221424Z 08005KT 06/05 A2999 RMK A01 T00590053  RH  096%=      5-min Rain = 0
KWE1 221425Z 08006KT 06/05 A30 RMK A01 T00590053  RH  096%=      5-min Rain = 0
KWE1 221426Z 09005KT 06/05 A30 RMK A01 T00590053  RH  096%=      5-min Rain = 0
KWE1 221427Z 09006KT 06/05 A30 RMK A01 T00600054  RH  096%=      5-min Rain = 0
KWE1 221428Z 09005KT 06/05 A30 RMK A01 T00600054  RH  096%=      5-min Rain = 0
KWE1 221429Z 08006KT 06/05 A30 RMK A01 T00600054  RH  096%=      5-min Rain = 0
KWE1 221430Z 08006KT 06/06 A30 RMK A01 T00610055  RH  096%=      5-min Rain = 0
KWE1 221431Z 09007KT 06/06 A30 RMK A01 T00610055  RH  096%=      5-min Rain = 0
KWE1 221432Z 09009KT 06/05 A30 RMK A01 T00610054  RH  096%=      5-min Rain = 0
KWE1 221433Z 09007KT 06/06 A30 RMK A01 T00610055  RH  096%=      5-min Rain = 0
KWE1 221434Z 10007KT 06/06 A30 RMK A01 T00610055  RH  096%=      5-min Rain = 0
KWE1 221435Z 09008KT 06/06 A30 RMK A01 T00610055  RH  096%=      5-min Rain = 0
KWE1 221436Z 09008KT 06/06 A30 RMK A01 T00610055  RH  096%=      5-min Rain = 0
KWE1 221437Z 10008KT 06/06 A30 RMK A01 T00610055  RH  096%=      5-min Rain = 0
KWE1 221438Z 09009KT 06/06 A30 RMK A01 T00610055  RH  096%=      5-min Rain = 0
KWE1 221439Z 09009KT 06/06 A30 RMK A01 T00610055  RH  096%=      5-min Rain = 0
KWE1 221440Z 09007KT 06/06 A30 RMK A01 T00610055  RH  096%=      5-min Rain = 0
KWE1 221441Z 09009KT 06/06 A30 RMK A01 T00610055  RH  096%=      5-min Rain = 0
KWE1 221442Z 09008KT 06/06 A30 RMK A01 T00610055  RH  096%=      5-min Rain = 0
KWE1 221443Z 08006KT 06/06 A30 RMK A01 T00610055  RH  096%=      5-min Rain = 0
KWE1 221444Z 08006KT 06/06 A30 RMK A01 T00620055  RH  096%=      5-min Rain = 0
KWE1 221445Z 08005KT 06/06 A30 RMK A01 T00620056  RH  096%=      5-min Rain = 0
KWE1 221446Z 08005KT 06/06 A30 RMK A01 T00620056  RH  096%=      5-min Rain = 0
KWE1 221447Z 08006KT 06/06 A30 RMK A01 T00620056  RH  096%=      5-min Rain = 0
KWE1 221448Z 09007KT 06/06 A30 RMK A01 T00620055  RH  096%=      5-min Rain = 0
KWE1 221449Z 09007KT 06/06 A30 RMK A01 T00610055  RH  096%=      5-min Rain = 0
KWE1 221450Z 09007KT 06/06 A30 RMK A01 T00610055  RH  096%=      5-min Rain = 0
KWE1 221451Z 07006KT 06/06 A30 RMK A01 T00610055  RH  096%=      5-min Rain = 0
KWE1 221452Z 08007KT 06/06 A30 RMK A01 T00610055  RH  096%=      5-min Rain = 0
KWE1 221453Z 09006KT 06/06 A30 RMK A01 T00620055  RH  096%=      5-min Rain = 0
KWE1 221454Z 08008KT 06/06 A30 RMK A01 T00620055  RH  096%=      5-min Rain = 0
KWE1 221455Z 08007KT 06/06 A30 RMK A01 T00620055  RH  096%=      5-min Rain = 0
KWE1 221456Z 08007KT 06/06 A30 RMK A01 T00620055  RH  096%=      5-min Rain = 0
KWE1 221457Z 08006KT 06/06 A30 RMK A01 T00620056  RH  096%=      5-min Rain = 0
KWE1 221458Z 08006KT 06/06 A30 RMK A01 T00620056  RH  096%=      5-min Rain = 0
KWE1 221459Z 09006KT 06/06 A30 RMK A01 T00620056  RH  096%=      5-min Rain = 0
KWE1 221500Z 09006KT 06/06 A30 RMK A01 T00620056  RH  096%=      5-min Rain = 0
KWE1 221501Z 09008KT 06/06 A30 RMK A01 T00630056  RH  096%=      5-min Rain = 0
KWE1 221502Z 09009KT 06/06 A3001 RMK A01 T00630056  RH  096%=      5-min Rain = 0
KWE1 221503Z 09007KT 06/06 A3001 RMK A01 T00620055  RH  096%=      5-min Rain = 0
KWE1 221504Z 09008KT 06/06 A3001 RMK A01 T00620055  RH  096%=      5-min Rain = 0
KWE1 221505Z 08008KT 06/06 A3001 RMK A01 T00620055  RH  096%=      5-min Rain = 0
KWE1 221506Z 08008KT 06/06 A3001 RMK A01 T00620055  RH  096%=      5-min Rain = 0
KWE1 221507Z 10008KT 06/06 A3001 RMK A01 T00620055  RH  096%=      5-min Rain = 0
KWE1 221508Z 10007KT 06/06 A3001 RMK A01 T00620055  RH  096%=      5-min Rain = 0
KWE1 221509Z 09006KT 06/06 A3001 RMK A01 T00620056  RH  096%=      5-min Rain = 0
KWE1 221510Z 08006KT 06/06 A3001 RMK A01 T00630057  RH  096%=      5-min Rain = 0
KWE1 221511Z 08007KT 06/06 A3001 RMK A01 T00630057  RH  096%=      5-min Rain = 0
KWE1 221512Z 07008KT 06/06 A3001 RMK A01 T00630056  RH  096%=      5-min Rain = 0
KWE1 221513Z 08007KT 06/06 A3001 RMK A01 T00630056  RH  095%=      5-min Rain = 0
KWE1 221514Z 09007KT 06/06 A3001 RMK A01 T00630056  RH  096%=      5-min Rain = 0
KWE1 221515Z 08006KT 06/06 A3001 RMK A01 T00630056  RH  095%=      5-min Rain = 0
KWE1 221516Z 09006KT 06/06 A3001 RMK A01 T00630056  RH  096%=      5-min Rain = 0
KWE1 221517Z 09007KT 06/06 A3001 RMK A01 T00640057  RH  096%=      5-min Rain = 0
KWE1 221518Z 08007KT 06/06 A30 RMK A01 T00640057  RH  096%=      5-min Rain = 0
KWE1 221519Z 08007KT 06/06 A30 RMK A01 T00640058  RH  096%=      5-min Rain = 0
KWE1 221520Z 08007KT 07/06 A30 RMK A01 T00650058  RH  095%=      5-min Rain = 0
KWE1 221521Z 07009KT 06/06 A30 RMK A01 T00640058  RH  095%=      5-min Rain = 0
KWE1 221522Z 08007KT 06/06 A30 RMK A01 T00640057  RH  095%=      5-min Rain = 0
KWE1 221523Z 08007KT 06/06 A30 RMK A01 T00640057  RH  095%=      5-min Rain = 0
KWE1 221524Z 08008KT 06/06 A30 RMK A01 T00640057  RH  095%=      5-min Rain = 0
KWE1 221525Z 08008KT 06/06 A30 RMK A01 T00640057  RH  095%=      5-min Rain = 0
KWE1 221526Z 09008KT 07/06 A30 RMK A01 T00650058  RH  095%=      5-min Rain = 0
KWE1 221527Z 09009KT 07/06 A30 RMK A01 T00650058  RH  095%=      5-min Rain = 0
KWE1 221528Z 09008KT 07/06 A30 RMK A01 T00650057  RH  095%=      5-min Rain = 0
KWE1 221529Z 08010KT 07/06 A30 RMK A01 T00650058  RH  095%=      5-min Rain = 0
KWE1 221530Z 08008KT 07/06 A30 RMK A01 T00650058  RH  095%=      5-min Rain = 0
KWE1 221531Z 08007KT 07/06 A30 RMK A01 T00650058  RH  095%=      5-min Rain = 0
KWE1 221532Z 08008KT 07/06 A30 RMK A01 T00650058  RH  095%=      5-min Rain = 0
KWE1 221533Z 08006KT 07/06 A30 RMK A01 T00650058  RH  095%=      5-min Rain = 0
KWE1 221534Z 08005KT 07/06 A30 RMK A01 T00660058  RH  095%=      5-min Rain = 0
KWE1 221535Z 08006KT 07/06 A3001 RMK A01 T00670060  RH  095%=      5-min Rain = 0
KWE1 221536Z 09006KT 07/06 A3001 RMK A01 T00670060  RH  095%=      5-min Rain = 0
KWE1 221537Z 09007KT 07/06 A30 RMK A01 T00670060  RH  095%=      5-min Rain = 0
KWE1 221538Z 08007KT 07/06 A30 RMK A01 T00670060  RH  095%=      5-min Rain = 0
KWE1 221539Z 08006KT 07/06 A30 RMK A01 T00670059  RH  095%=      5-min Rain = 0
KWE1 221540Z 09006KT 07/06 A3001 RMK A01 T00670060  RH  095%=      5-min Rain = 0
KWE1 221541Z 10008KT 07/06 A3001 RMK A01 T00680060  RH  095%=      5-min Rain = 0
KWE1 221542Z 09007KT 07/06 A3001 RMK A01 T00680060  RH  095%=      5-min Rain = 0
KWE1 221543Z 10007KT 07/06 A3001 RMK A01 T00670060  RH  095%=      5-min Rain = 0
KWE1 221544Z 09008KT 07/06 A3001 RMK A01 T00680060  RH  095%=      5-min Rain = 0
KWE1 221545Z 08007KT 07/06 A3001 RMK A01 T00680060  RH  095%=      5-min Rain = 0
KWE1 221546Z 08006KT 07/06 A3001 RMK A01 T00680060  RH  095%=      5-min Rain = 0
KWE1 221547Z 10006KT 07/06 A3001 RMK A01 T00680060  RH  095%=      5-min Rain = 0
KWE1 221548Z 10007KT 07/06 A3001 RMK A01 T00680060  RH  095%=      5-min Rain = 0
KWE1 221549Z 10008KT 07/06 A3001 RMK A01 T00680060  RH  095%=      5-min Rain = 0
KWE1 221550Z 10008KT 07/06 A3001 RMK A01 T00680060  RH  094%=      5-min Rain = 0
KWE1 221551Z 10008KT 07/06 A3001 RMK A01 T00680060  RH  094%=      5-min Rain = 0
KWE1 221552Z 09008KT 07/06 A3001 RMK A01 T00680059  RH  094%=      5-min Rain = 0
KWE1 221553Z 10008KT 07/06 A3001 RMK A01 T00680060  RH  094%=      5-min Rain = 0
KWE1 221554Z 10008KT 07/06 A3001 RMK A01 T00680059  RH  094%=      5-min Rain = 0
KWE1 221555Z 10008KT 07/06 A3001 RMK A01 T00680059  RH  094%=      5-min Rain = 0
KWE1 221556Z 10007KT 07/06 A3001 RMK A01 T00680059  RH  094%=      5-min Rain = 0
KWE1 221557Z 10006KT 07/06 A3001 RMK A01 T00680059  RH  094%=      5-min Rain = 0
KWE1 221558Z 09006KT 07/06 A3001 RMK A01 T00690060  RH  094%=      5-min Rain = 0
KWE1 221559Z 09006KT 07/06 A3001 RMK A01 T00690059  RH  094%=      5-min Rain = 0
KWE1 221600Z 09006KT 07/06 A3001 RMK A01 T00690059  RH  094%=      5-min Rain = 0
KWE1 221601Z 09005KT 07/06 A3001 RMK A01 T00690059  RH  093%=      5-min Rain = 0
KWE1 221602Z 09005KT 07/06 A3001 RMK A01 T00690060  RH  094%=      5-min Rain = 0
KWE1 221603Z 08006KT 07/06 A30 RMK A01 T00710061  RH  094%=      5-min Rain = 0
KWE1 221604Z 08005KT 07/06 A30 RMK A01 T00710061  RH  093%=      5-min Rain = 0
KWE1 221605Z 08005KT 07/06 A30 RMK A01 T00700060  RH  093%=      5-min Rain = 0
KWE1 221606Z 08006KT 07/06 A3001 RMK A01 T00710060  RH  093%=      5-min Rain = 0
KWE1 221607Z 09006KT 07/06 A3001 RMK A01 T00710061  RH  093%=      5-min Rain = 0
KWE1 221608Z 09007KT 07/06 A3001 RMK A01 T00700060  RH  093%=      5-min Rain = 0
KWE1 221609Z 09006KT 07/06 A30 RMK A01 T00700059  RH  093%=      5-min Rain = 0
KWE1 221610Z 09005KT 07/06 A30 RMK A01 T00690059  RH  093%=      5-min Rain = 0
KWE1 221611Z 09006KT 07/06 A30 RMK A01 T00690059  RH  093%=      5-min Rain = 0
KWE1 221612Z 10006KT 07/06 A30 RMK A01 T00700059  RH  093%=      5-min Rain = 0
KWE1 221613Z 09004KT 07/06 A30 RMK A01 T00700059  RH  093%=      5-min Rain = 0
KWE1 221614Z 06005KT 07/06 A30 RMK A01 T00710060  RH  093%=      5-min Rain = 0
KWE1 221615Z 07005KT 07/06 A30 RMK A01 T00700059  RH  093%=      5-min Rain = 0
KWE1 221616Z 07004KT 07/06 A30 RMK A01 T00690058  RH  092%=      5-min Rain = 0
KWE1 221617Z 07004KT 07/06 A30 RMK A01 T00700058  RH  092%=      5-min Rain = 0
KWE1 221618Z 08004KT 07/06 A30 RMK A01 T00700058  RH  092%=      5-min Rain = 0
KWE1 221619Z 07004KT 07/06 A30 RMK A01 T00700058  RH  092%=      5-min Rain = 0
KWE1 221620Z 06004KT 07/06 A30 RMK A01 T00700059  RH  092%=      5-min Rain = 0
KWE1 221621Z 07005KT 07/06 A30 RMK A01 T00710060  RH  092%=      5-min Rain = 0
KWE1 221622Z 07006KT 07/06 A30 RMK A01 T00720060  RH  092%=      5-min Rain = 0
KWE1 221623Z 08004KT 07/06 A2999 RMK A01 T00720059  RH  092%=      5-min Rain = 0
KWE1 221624Z 09004KT 07/06 A2999 RMK A01 T00720060  RH  092%=      5-min Rain = 0
KWE1 221625Z 07005KT 07/06 A2999 RMK A01 T00730062  RH  092%=      5-min Rain = 0
KWE1 221626Z 06003KT 07/06 A2999 RMK A01 T00740062  RH  092%=      5-min Rain = 0
KWE1 221627Z 06005KT 07/06 A2999 RMK A01 T00740062  RH  092%=      5-min Rain = 0
KWE1 221628Z 07005KT 08/06 A2999 RMK A01 T00750062  RH  092%=      5-min Rain = 0
KWE1 221629Z 05004KT 08/06 A2998 RMK A01 T00760064  RH  092%=      5-min Rain = 0
KWE1 221630Z 05004KT 08/07 A2998 RMK A01 T00780067  RH  092%=      5-min Rain = 0
KWE1 221631Z 06005KT 08/07 A2998 RMK A01 T00780065  RH  092%=      5-min Rain = 0
KWE1 221632Z 05004KT 08/06 A2998 RMK A01 T00760062  RH  091%=      5-min Rain = 0
KWE1 221633Z 04005KT 08/06 A2998 RMK A01 T00750061  RH  091%=      5-min Rain = 0
KWE1 221634Z 06005KT 07/06 A2998 RMK A01 T00740060  RH  091%=      5-min Rain = 0
KWE1 221635Z 06005KT 07/06 A2998 RMK A01 T00740060  RH  091%=      5-min Rain = 0
KWE1 221636Z 05005KT 08/06 A2998 RMK A01 T00750062  RH  091%=      5-min Rain = 0
KWE1 221637Z 05005KT 08/06 A2998 RMK A01 T00760062  RH  091%=      5-min Rain = 0
KWE1 221638Z 06005KT 08/06 A2998 RMK A01 T00750061  RH  091%=      5-min Rain = 0
KWE1 221639Z 05005KT 08/06 A2998 RMK A01 T00750061  RH  091%=      5-min Rain = 0
KWE1 221640Z 05004KT 08/06 A2998 RMK A01 T00750061  RH  091%=      5-min Rain = 0
KWE1 221641Z 05004KT 08/06 A2998 RMK A01 T00760062  RH  091%=      5-min Rain = 0
KWE1 221642Z 06004KT 08/06 A2998 RMK A01 T00760062  RH  091%=      5-min Rain = 0
KWE1 221643Z 06004KT 08/06 A2998 RMK A01 T00760063  RH  091%=      5-min Rain = 0
KWE1 221644Z 04006KT 08/06 A2998 RMK A01 T00760063  RH  091%=      5-min Rain = 0
KWE1 221645Z 04004KT 08/06 A2998 RMK A01 T00760062  RH  091%=      5-min Rain = 0
KWE1 221646Z 05006KT 08/06 A2998 RMK A01 T00770064  RH  091%=      5-min Rain = 0
KWE1 221647Z 06006KT 08/06 A2998 RMK A01 T00780064  RH  091%=      5-min Rain = 0
KWE1 221648Z 07006KT 08/06 A2998 RMK A01 T00770062  RH  091%=      5-min Rain = 0
KWE1 221649Z 06006KT 08/06 A2998 RMK A01 T00770062  RH  091%=      5-min Rain = 0
KWE1 221650Z 06005KT 08/06 A2998 RMK A01 T00760062  RH  091%=      5-min Rain = 0
KWE1 221651Z 06006KT 08/06 A2998 RMK A01 T00760062  RH  091%=      5-min Rain = 0
KWE1 221652Z 06006KT 08/06 A2998 RMK A01 T00760061  RH  090%=      5-min Rain = 0
KWE1 221653Z 06006KT 08/06 A2998 RMK A01 T00750061  RH  090%=      5-min Rain = 0
KWE1 221654Z 07007KT 08/06 A2998 RMK A01 T00750061  RH  091%=      5-min Rain = 0
KWE1 221655Z 07006KT 08/06 A2998 RMK A01 T00760061  RH  091%=      5-min Rain = 0
KWE1 221656Z 07007KT 08/06 A2998 RMK A01 T00760062  RH  091%=      5-min Rain = 0
KWE1 221657Z 08007KT 08/06 A2998 RMK A01 T00760062  RH  091%=      5-min Rain = 0
KWE1 221658Z 08008KT 08/06 A2998 RMK A01 T00770063  RH  091%=      5-min Rain = 0
KWE1 221659Z 08005KT 08/06 A2998 RMK A01 T00770063  RH  091%=      5-min Rain = 0
KWE1 221700Z 09007KT 08/06 A2998 RMK A01 T00780064  RH  091%=      5-min Rain = 0
KWE1 221701Z 09007KT 08/06 A2998 RMK A01 T00780064  RH  091%=      5-min Rain = 0
KWE1 221702Z 09006KT 08/07 A2998 RMK A01 T00790065  RH  091%=      5-min Rain = 0
KWE1 221703Z 09007KT 08/06 A2998 RMK A01 T00790064  RH  090%=      5-min Rain = 0
KWE1 221704Z 10007KT 08/06 A2998 RMK A01 T00790064  RH  090%=      5-min Rain = 0
KWE1 221705Z 10006KT 08/07 A2998 RMK A01 T00790065  RH  090%=      5-min Rain = 0
KWE1 221706Z 09006KT 08/07 A2998 RMK A01 T00800065  RH  090%=      5-min Rain = 0
KWE1 221707Z 09007KT 08/07 A2998 RMK A01 T00800065  RH  090%=      5-min Rain = 0
KWE1 221708Z 09010KT 08/06 A2998 RMK A01 T00800064  RH  090%=      5-min Rain = 0
KWE1 221709Z 09010KT 08/06 A2998 RMK A01 T00790062  RH  089%=      5-min Rain = 0
KWE1 221710Z 09008KT 08/06 A2998 RMK A01 T00790062  RH  090%=      5-min Rain = 0
KWE1 221711Z 09008KT 08/06 A2998 RMK A01 T00790063  RH  090%=      5-min Rain = 0
KWE1 221712Z 10008KT 08/06 A2998 RMK A01 T00790063  RH  090%=      5-min Rain = 0
KWE1 221713Z 10011KT 08/06 A2998 RMK A01 T00790063  RH  090%=      5-min Rain = 0
KWE1 221714Z 10009KT 08/06 A2998 RMK A01 T00780063  RH  090%=      5-min Rain = 0
KWE1 221715Z 10008KT 08/06 A2998 RMK A01 T00780062  RH  090%=      5-min Rain = 0
KWE1 221716Z 10010KT 08/06 A2998 RMK A01 T00770062  RH  090%=      5-min Rain = 0
KWE1 221717Z 10010KT 08/06 A2998 RMK A01 T00770062  RH  090%=      5-min Rain = 0
KWE1 221718Z 10010KT 08/06 A2998 RMK A01 T00770062  RH  090%=      5-min Rain = 0
KWE1 221719Z 10009KT 08/06 A2998 RMK A01 T00770062  RH  090%=      5-min Rain = 0
KWE1 221720Z 10010KT 08/06 A2998 RMK A01 T00780063  RH  090%=      5-min Rain = 0
KWE1 221721Z 09009KT 08/06 A2998 RMK A01 T00770062  RH  090%=      5-min Rain = 0
KWE1 221722Z 10007KT 08/06 A2998 RMK A01 T00770062  RH  090%=      5-min Rain = 0
KWE1 221723Z 10007KT 08/06 A2998 RMK A01 T00780063  RH  091%=      5-min Rain = 0
KWE1 221724Z 09008KT 08/06 A2998 RMK A01 T00790064  RH  091%=      5-min Rain = 0
KWE1 221725Z 09010KT 08/06 A2998 RMK A01 T00780064  RH  091%=      5-min Rain = 0
KWE1 221726Z 09009KT 08/06 A2998 RMK A01 T00790064  RH  090%=      5-min Rain = 0
KWE1 221727Z 10009KT 08/06 A2998 RMK A01 T00780063  RH  090%=      5-min Rain = 0
KWE1 221728Z 10009KT 08/06 A2998 RMK A01 T00780063  RH  090%=      5-min Rain = 0
KWE1 221729Z 09009KT 08/06 A2998 RMK A01 T00780063  RH  090%=      5-min Rain = 0
KWE1 221730Z 10008KT 08/06 A2997 RMK A01 T00780063  RH  090%=      5-min Rain = 0
KWE1 221731Z 09009KT 08/06 A2997 RMK A01 T00780064  RH  091%=      5-min Rain = 0
KWE1 221732Z 10007KT 08/06 A2997 RMK A01 T00780064  RH  091%=      5-min Rain = 0
KWE1 221733Z 11009KT 08/06 A2997 RMK A01 T00780064  RH  091%=      5-min Rain = 0
KWE1 221734Z 10008KT 08/06 A2997 RMK A01 T00780064  RH  091%=      5-min Rain = 0
KWE1 221735Z 08007KT 08/06 A2997 RMK A01 T00780063  RH  091%=      5-min Rain = 0
KWE1 221736Z 08007KT 08/06 A2997 RMK A01 T00780064  RH  091%=      5-min Rain = 0
KWE1 221737Z 07006KT 08/06 A2997 RMK A01 T00780064  RH  091%=      5-min Rain = 0
KWE1 221738Z 10006KT 08/06 A2997 RMK A01 T00780064  RH  091%=      5-min Rain = 0
KWE1 221739Z 10008KT 08/07 A2997 RMK A01 T00790065  RH  091%=      5-min Rain = 0
KWE1 221740Z 10007KT 08/07 A2997 RMK A01 T00790065  RH  091%=      5-min Rain = 0
KWE1 221741Z 09008KT 08/07 A2997 RMK A01 T00790065  RH  091%=      5-min Rain = 0
KWE1 221742Z 09008KT 08/07 A2997 RMK A01 T00800065  RH  091%=      5-min Rain = 0
KWE1 221743Z 10008KT 08/07 A2997 RMK A01 T00800066  RH  091%=      5-min Rain = 0
KWE1 221744Z 10007KT 08/07 A2997 RMK A01 T00800066  RH  091%=      5-min Rain = 0
KWE1 221745Z 10007KT 08/07 A2997 RMK A01 T00810066  RH  091%=      5-min Rain = 0
KWE1 221746Z 10008KT 08/07 A2997 RMK A01 T00810066  RH  091%=      5-min Rain = 0
KWE1 221747Z 10007KT 08/07 A2997 RMK A01 T00800066  RH  090%=      5-min Rain = 0
KWE1 221748Z 09008KT 08/07 A2997 RMK A01 T00810066  RH  090%=      5-min Rain = 0
KWE1 221749Z 08007KT 08/07 A2997 RMK A01 T00800065  RH  090%=      5-min Rain = 0
KWE1 221750Z 09007KT 08/07 A2997 RMK A01 T00800065  RH  090%=      5-min Rain = 0
KWE1 221751Z 09008KT 08/07 A2997 RMK A01 T00800065  RH  090%=      5-min Rain = 0
KWE1 221752Z 09008KT 08/06 A2997 RMK A01 T00800064  RH  090%=      5-min Rain = 0
KWE1 221753Z 09009KT 08/07 A2997 RMK A01 T00800065  RH  090%=      5-min Rain = 0
KWE1 221754Z 09007KT 08/07 A2997 RMK A01 T00800065  RH  090%=      5-min Rain = 0
KWE1 221755Z 10008KT 08/07 A2997 RMK A01 T00800065  RH  090%=      5-min Rain = 0
KWE1 221756Z 09009KT 08/07 A2997 RMK A01 T00800065  RH  090%=      5-min Rain = 0
KWE1 221757Z 10007KT 08/07 A2997 RMK A01 T00800065  RH  090%=      5-min Rain = 0
KWE1 221758Z 11009KT 08/07 A2997 RMK A01 T00810066  RH  091%=      5-min Rain = 0
KWE1 221759Z 11009KT 08/07 A2997 RMK A01 T00810066  RH  090%=      5-min Rain = 0
KWE1 221800Z 11008KT 08/07 A2997 RMK A01 T00800066  RH  090%=      5-min Rain = 0
KWE1 221801Z 11008KT 08/07 A2997 RMK A01 T00800066  RH  091%=      5-min Rain = 0
KWE1 221802Z 11008KT 08/07 A2997 RMK A01 T00800066  RH  091%=      5-min Rain = 0
KWE1 221803Z 11007KT 08/07 A2997 RMK A01 T00800066  RH  091%=      5-min Rain = 0
KWE1 221804Z 11006KT 08/07 A2997 RMK A01 T00800066  RH  091%=      5-min Rain = 0
KWE1 221805Z 10006KT 08/07 A2996 RMK A01 T00810066  RH  091%=      5-min Rain = 0
KWE1 221806Z 09006KT 08/07 A2996 RMK A01 T00820068  RH  091%=      5-min Rain = 0
KWE1 221807Z 09008KT 08/07 A2996 RMK A01 T00820067  RH  091%=      5-min Rain = 0
KWE1 221808Z 09007KT 08/07 A2996 RMK A01 T00820067  RH  090%=      5-min Rain = 0
KWE1 221809Z 09007KT 08/07 A2996 RMK A01 T00810066  RH  090%=      5-min Rain = 0
KWE1 221810Z 10006KT 08/07 A2996 RMK A01 T00810066  RH  090%=      5-min Rain = 0
KWE1 221811Z 11007KT 08/07 A2996 RMK A01 T00810067  RH  091%=      5-min Rain = 0
KWE1 221812Z 10006KT 08/07 A2997 RMK A01 T00810067  RH  091%=      5-min Rain = 0
KWE1 221813Z 10005KT 08/07 A2997 RMK A01 T00810067  RH  091%=      5-min Rain = 0
KWE1 221814Z 10006KT 08/07 A2997 RMK A01 T00820067  RH  091%=      5-min Rain = 0
KWE1 221815Z 10006KT 08/07 A2997 RMK A01 T00810067  RH  091%=      5-min Rain = 0
KWE1 221816Z 09007KT 08/07 A2996 RMK A01 T00810067  RH  091%=      5-min Rain = 0
KWE1 221817Z 08007KT 08/07 A2996 RMK A01 T00810066  RH  091%=      5-min Rain = 0
KWE1 221818Z 09006KT 08/07 A2996 RMK A01 T00800066  RH  091%=      5-min Rain = 0
KWE1 221819Z 09007KT 08/07 A2996 RMK A01 T00810067  RH  091%=      5-min Rain = 0
KWE1 221820Z 10007KT 08/07 A2996 RMK A01 T00820068  RH  091%=      5-min Rain = 0
KWE1 221821Z 10007KT 08/07 A2996 RMK A01 T00820067  RH  091%=      5-min Rain = 0
KWE1 221822Z 09006KT 08/07 A2996 RMK A01 T00810067  RH  091%=      5-min Rain = 0
KWE1 221823Z 10008KT 08/07 A2996 RMK A01 T00810067  RH  091%=      5-min Rain = 0
KWE1 221824Z 10006KT 08/07 A2996 RMK A01 T00810067  RH  091%=      5-min Rain = 0
KWE1 221825Z 10006KT 08/07 A2996 RMK A01 T00820068  RH  091%=      5-min Rain = 0
KWE1 221826Z 10008KT 08/07 A2996 RMK A01 T00830069  RH  091%=      5-min Rain = 0
KWE1 221827Z 09008KT 08/07 A2996 RMK A01 T00830068  RH  091%=      5-min Rain = 0
KWE1 221828Z 09008KT 08/07 A2996 RMK A01 T00820068  RH  090%=      5-min Rain = 0
KWE1 221829Z 10008KT 08/07 A2995 RMK A01 T00820067  RH  090%=      5-min Rain = 0
KWE1 221830Z 10008KT 08/07 A2995 RMK A01 T00820067  RH  090%=      5-min Rain = 0
KWE1 221831Z 10008KT 08/07 A2995 RMK A01 T00820067  RH  090%=      5-min Rain = 0
KWE1 221832Z 11006KT 08/07 A2995 RMK A01 T00820068  RH  091%=      5-min Rain = 0
KWE1 221833Z 11007KT 08/07 A2995 RMK A01 T00830068  RH  090%=      5-min Rain = 0
KWE1 221834Z 11007KT 08/07 A2995 RMK A01 T00830068  RH  090%=      5-min Rain = 0
KWE1 221835Z 11007KT 08/07 A2995 RMK A01 T00840069  RH  090%=      5-min Rain = 0
KWE1 221836Z 10008KT 08/07 A2995 RMK A01 T00840068  RH  090%=      5-min Rain = 0
KWE1 221837Z 11008KT 08/07 A2995 RMK A01 T00830067  RH  090%=      5-min Rain = 0
KWE1 221838Z 11007KT 08/07 A2995 RMK A01 T00830067  RH  090%=      5-min Rain = 0
KWE1 221839Z 11007KT 08/07 A2995 RMK A01 T00830068  RH  090%=      5-min Rain = 0
KWE1 221840Z 10007KT 08/07 A2995 RMK A01 T00840069  RH  090%=      5-min Rain = 0
KWE1 221841Z 10007KT 08/07 A2995 RMK A01 T00840069  RH  090%=      5-min Rain = 0
KWE1 221842Z 10007KT 08/07 A2995 RMK A01 T00840069  RH  090%=      5-min Rain = 0
KWE1 221843Z 11009KT 09/07 A2994 RMK A01 T00850069  RH  090%=      5-min Rain = 0
KWE1 221844Z 10008KT 08/07 A2994 RMK A01 T00840068  RH  089%=      5-min Rain = 0
KWE1 221845Z 10007KT 08/07 A2994 RMK A01 T00840068  RH  089%=      5-min Rain = 0
KWE1 221846Z 10007KT 08/07 A2994 RMK A01 T00840068  RH  089%=      5-min Rain = 0
KWE1 221847Z 11006KT 08/07 A2994 RMK A01 T00840068  RH  090%=      5-min Rain = 0
KWE1 221848Z 10007KT 08/07 A2994 RMK A01 T00840068  RH  090%=      5-min Rain = 0
KWE1 221849Z 11009KT 09/07 A2994 RMK A01 T00850069  RH  090%=      5-min Rain = 0
KWE1 221850Z 11009KT 08/07 A2994 RMK A01 T00840067  RH  089%=      5-min Rain = 0
KWE1 221851Z 11009KT 08/07 A2994 RMK A01 T00840067  RH  089%=      5-min Rain = 0
KWE1 221852Z 11007KT 08/07 A2994 RMK A01 T00830066  RH  089%=      5-min Rain = 0
KWE1 221853Z 10007KT 08/07 A2994 RMK A01 T00830067  RH  090%=      5-min Rain = 0
KWE1 221854Z 10010KT 08/07 A2994 RMK A01 T00840069  RH  090%=      5-min Rain = 0
KWE1 221855Z 10010KT 08/07 A2994 RMK A01 T00840068  RH  090%=      5-min Rain = 0
KWE1 221856Z 10009KT 08/07 A2994 RMK A01 T00830067  RH  090%=      5-min Rain = 0
KWE1 221857Z 10009KT 08/07 A2994 RMK A01 T00830068  RH  090%=      5-min Rain = 0
KWE1 221858Z 11009KT 08/07 A2994 RMK A01 T00830068  RH  090%=      5-min Rain = 0
KWE1 221859Z 10010KT 08/07 A2994 RMK A01 T00830068  RH  090%=      5-min Rain = 0
KWE1 221900Z 11009KT 08/07 A2994 RMK A01 T00820067  RH  090%=      5-min Rain = 0
KWE1 221901Z 11010KT 08/07 A2994 RMK A01 T00820067  RH  090%=      5-min Rain = 0
KWE1 221902Z 10008KT 08/07 A2994 RMK A01 T00820067  RH  091%=      5-min Rain = 0
KWE1 221903Z 10010KT 08/07 A2994 RMK A01 T00820068  RH  091%=      5-min Rain = 0
KWE1 221904Z 11007KT 08/07 A2994 RMK A01 T00820068  RH  091%=      5-min Rain = 0
KWE1 221905Z 11008KT 08/07 A2994 RMK A01 T00820068  RH  091%=      5-min Rain = 0
KWE1 221906Z 10010KT 08/07 A2994 RMK A01 T00820068  RH  091%=      5-min Rain = 0
KWE1 221907Z 09008KT 08/07 A2994 RMK A01 T00810068  RH  091%=      5-min Rain = 0
KWE1 221908Z 10008KT 08/07 A2994 RMK A01 T00810068  RH  092%=      5-min Rain = 0
KWE1 221909Z 10009KT 08/07 A2993 RMK A01 T00810069  RH  092%=      5-min Rain = 0
KWE1 221910Z 10008KT 08/07 A2993 RMK A01 T00810069  RH  092%=      5-min Rain = 0
KWE1 221911Z 11008KT 08/07 A2993 RMK A01 T00810069  RH  092%=      5-min Rain = 0
KWE1 221912Z 10007KT 08/07 A2993 RMK A01 T00810069  RH  092%=      5-min Rain = 0
KWE1 221913Z 11009KT 08/07 A2993 RMK A01 T00810069  RH  092%=      5-min Rain = 0
KWE1 221914Z 11007KT 08/07 A2993 RMK A01 T00810069  RH  092%=      5-min Rain = 0
KWE1 221915Z 11006KT 08/07 A2993 RMK A01 T00800068  RH  092%=      5-min Rain = 0
KWE1 221916Z 10005KT 08/07 A2993 RMK A01 T00800069  RH  092%=      5-min Rain = 0
KWE1 221917Z 10006KT 08/07 A2993 RMK A01 T00810069  RH  092%=      5-min Rain = 0
KWE1 221918Z 10008KT 08/07 A2993 RMK A01 T00820070  RH  093%=      5-min Rain = 0
KWE1 221919Z 10008KT 08/07 A2993 RMK A01 T00820070  RH  093%=      5-min Rain = 0
KWE1 221920Z 10007KT 08/07 A2993 RMK A01 T00810070  RH  093%=      5-min Rain = 0
KWE1 221921Z 10006KT 08/07 A2993 RMK A01 T00820070  RH  093%=      5-min Rain = 0
KWE1 221922Z 10006KT 08/07 A2993 RMK A01 T00820071  RH  093%=      5-min Rain = 0
KWE1 221923Z 10006KT 08/07 A2993 RMK A01 T00820071  RH  093%=      5-min Rain = 0
KWE1 221924Z 10006KT 08/07 A2993 RMK A01 T00820071  RH  093%=      5-min Rain = 0
KWE1 221925Z 09007KT 08/07 A2993 RMK A01 T00820070  RH  093%=      5-min Rain = 0
KWE1 221926Z 10006KT 08/07 A2993 RMK A01 T00810070  RH  093%=      5-min Rain = 0
KWE1 221927Z 12005KT 08/07 A2993 RMK A01 T00810070  RH  093%=      5-min Rain = 0
KWE1 221928Z 12005KT 08/07 A2993 RMK A01 T00800069  RH  093%=      5-min Rain = 0
KWE1 221929Z 10006KT 08/07 A2993 RMK A01 T00800069  RH  093%=      5-min Rain = 0
KWE1 221930Z 10007KT 08/07 A2993 RMK A01 T00800069  RH  093%=      5-min Rain = 0
KWE1 221931Z 11006KT 08/07 A2993 RMK A01 T00800069  RH  093%=      5-min Rain = 0
KWE1 221932Z 11005KT 08/07 A2993 RMK A01 T00800069  RH  093%=      5-min Rain = 0
KWE1 221933Z 12006KT 08/07 A2993 RMK A01 T00800069  RH  093%=      5-min Rain = 0
KWE1 221934Z 11006KT 08/07 A2993 RMK A01 T00800069  RH  093%=      5-min Rain = 0
KWE1 221935Z 10006KT 08/07 A2993 RMK A01 T00800069  RH  093%=      5-min Rain = 0
KWE1 221936Z 09007KT 08/07 A2993 RMK A01 T00810069  RH  093%=      5-min Rain = 0
KWE1 221937Z 09007KT 08/07 A2993 RMK A01 T00810069  RH  093%=      5-min Rain = 0
KWE1 221938Z 11007KT 08/07 A2993 RMK A01 T00810069  RH  093%=      5-min Rain = 0
KWE1 221939Z 11007KT 08/07 A2993 RMK A01 T00800069  RH  093%=      5-min Rain = 0
KWE1 221940Z 09006KT 08/07 A2993 RMK A01 T00810070  RH  093%=      5-min Rain = 0
KWE1 221941Z 10005KT 08/07 A2993 RMK A01 T00810070  RH  093%=      5-min Rain = 0
KWE1 221942Z 11005KT 08/07 A2992 RMK A01 T00810071  RH  093%=      5-min Rain = 0
KWE1 221943Z 11006KT 08/07 A2992 RMK A01 T00820071  RH  093%=      5-min Rain = 0
KWE1 221944Z 11005KT 08/07 A2992 RMK A01 T00820071  RH  093%=      5-min Rain = 0
KWE1 221945Z 11007KT 08/07 A2992 RMK A01 T00810070  RH  093%=      5-min Rain = 0
KWE1 221946Z 11007KT 08/07 A2992 RMK A01 T00810070  RH  093%=      5-min Rain = 0
KWE1 221947Z 11006KT 08/07 A2992 RMK A01 T00810070  RH  093%=      5-min Rain = 0
KWE1 221948Z 10006KT 08/07 A2992 RMK A01 T00810070  RH  093%=      5-min Rain = 0
KWE1 221949Z 11006KT 08/07 A2992 RMK A01 T00810070  RH  093%=      5-min Rain = 0
KWE1 221950Z 10006KT 08/07 A2992 RMK A01 T00810070  RH  093%=      5-min Rain = 0
KWE1 221951Z 11007KT 08/07 A2992 RMK A01 T00810070  RH  093%=      5-min Rain = 0
KWE1 221952Z 10006KT 08/07 A2993 RMK A01 T00810070  RH  093%=      5-min Rain = 0
KWE1 221953Z 09007KT 08/07 A2992 RMK A01 T00810070  RH  093%=      5-min Rain = 0
KWE1 221954Z 10007KT 08/07 A2992 RMK A01 T00810070  RH  093%=      5-min Rain = 0
KWE1 221955Z 10009KT 08/07 A2992 RMK A01 T00810070  RH  093%=      5-min Rain = 0
KWE1 221956Z 10009KT 08/07 A2992 RMK A01 T00800069  RH  093%=      5-min Rain = 0
KWE1 221957Z 10008KT 08/07 A2992 RMK A01 T00800069  RH  093%=      5-min Rain = 0
KWE1 221958Z 10007KT 08/07 A2992 RMK A01 T00790069  RH  093%=      5-min Rain = 0
KWE1 221959Z 10006KT 08/07 A2992 RMK A01 T00800069  RH  093%=      5-min Rain = 0
KWE1 222000Z 10009KT 08/07 A2992 RMK A01 T00800070  RH  093%=      5-min Rain = 0
KWE1 222001Z 10007KT 08/07 A2992 RMK A01 T00800070  RH  093%=      5-min Rain = 0
KWE1 222002Z 10008KT 08/07 A2991 RMK A01 T00810070  RH  093%=      5-min Rain = 0
KWE1 222003Z 10007KT 08/07 A2991 RMK A01 T00800070  RH  093%=      5-min Rain = 0
KWE1 222004Z 11006KT 08/07 A2991 RMK A01 T00800070  RH  093%=      5-min Rain = 0
KWE1 222005Z 09008KT 08/07 A2991 RMK A01 T00800070  RH  093%=      5-min Rain = 0
KWE1 222006Z 10008KT 08/07 A2991 RMK A01 T00800070  RH  094%=      5-min Rain = 0
KWE1 222007Z 10007KT 08/07 A2991 RMK A01 T00810071  RH  093%=      5-min Rain = 0
KWE1 222008Z 10007KT 08/07 A2991 RMK A01 T00810071  RH  093%=      5-min Rain = 0
KWE1 222009Z 10007KT 08/07 A2991 RMK A01 T00810071  RH  094%=      5-min Rain = 0
KWE1 222010Z 11006KT 08/07 A2991 RMK A01 T00810071  RH  094%=      5-min Rain = 0
KWE1 222011Z 11006KT 08/07 A2991 RMK A01 T00810071  RH  094%=      5-min Rain = 0
KWE1 222012Z 12006KT 08/07 A2991 RMK A01 T00810071  RH  094%=      5-min Rain = 0
KWE1 222013Z 11005KT 08/07 A2991 RMK A01 T00810071  RH  094%=      5-min Rain = 0
KWE1 222014Z 11006KT 08/07 A2991 RMK A01 T00810071  RH  094%=      5-min Rain = 0
KWE1 222015Z 10006KT 08/07 A2991 RMK A01 T00810072  RH  094%=      5-min Rain = 0
KWE1 222016Z 10007KT 08/07 A2991 RMK A01 T00810071  RH  094%=      5-min Rain = 0
KWE1 222017Z 10007KT 08/07 A2991 RMK A01 T00810071  RH  094%=      5-min Rain = 0
KWE1 222018Z 10006KT 08/07 A299 RMK A01 T00810071  RH  094%=      5-min Rain = 0
KWE1 222019Z 09006KT 08/07 A299 RMK A01 T00810072  RH  094%=      5-min Rain = 0
KWE1 222020Z 10006KT 08/07 A299 RMK A01 T00810071  RH  094%=      5-min Rain = 0
KWE1 222021Z 09007KT 08/07 A299 RMK A01 T00810071  RH  094%=      5-min Rain = 0
KWE1 222022Z 09008KT 08/07 A299 RMK A01 T00810071  RH  094%=      5-min Rain = 0
KWE1 222023Z 09007KT 08/07 A299 RMK A01 T00810071  RH  094%=      5-min Rain = 0
KWE1 222024Z 11007KT 08/07 A299 RMK A01 T00810072  RH  094%=      5-min Rain = 0
KWE1 222025Z 11006KT 08/07 A299 RMK A01 T00820072  RH  094%=      5-min Rain = 0
KWE1 222026Z 09007KT 08/07 A299 RMK A01 T00810072  RH  094%=      5-min Rain = 0
KWE1 222027Z 10007KT 08/07 A299 RMK A01 T00810071  RH  093%=      5-min Rain = 0
KWE1 222028Z 09007KT 08/07 A299 RMK A01 T00810071  RH  093%=      5-min Rain = 0
KWE1 222029Z 10006KT 08/07 A299 RMK A01 T00810071  RH  093%=      5-min Rain = 0
KWE1 222030Z 09006KT 08/07 A299 RMK A01 T00810071  RH  093%=      5-min Rain = 0
KWE1 222031Z 09008KT 08/07 A299 RMK A01 T00810071  RH  094%=      5-min Rain = 0
KWE1 222032Z 09006KT 08/07 A299 RMK A01 T00810071  RH  093%=      5-min Rain = 0
KWE1 222033Z 10007KT 08/07 A299 RMK A01 T00820072  RH  094%=      5-min Rain = 0
KWE1 222034Z 10007KT 08/07 A299 RMK A01 T00820072  RH  093%=      5-min Rain = 0
KWE1 222035Z 10006KT 08/07 A299 RMK A01 T00820072  RH  093%=      5-min Rain = 0
KWE1 222036Z 10005KT 08/07 A299 RMK A01 T00820072  RH  094%=      5-min Rain = 0
KWE1 222037Z 10008KT 08/07 A299 RMK A01 T00820072  RH  094%=      5-min Rain = 0
KWE1 222038Z 10007KT 08/07 A299 RMK A01 T00810072  RH  094%=      5-min Rain = 0
KWE1 222039Z 10006KT 08/07 A299 RMK A01 T00810072  RH  094%=      5-min Rain = 0
KWE1 222040Z 09005KT 08/07 A299 RMK A01 T00810072  RH  094%=      5-min Rain = 0
KWE1 222041Z 10004KT 08/07 A299 RMK A01 T00820072  RH  094%=      5-min Rain = 0
KWE1 222042Z 11004KT 08/07 A299 RMK A01 T00830073  RH  094%=      5-min Rain = 0
KWE1 222043Z 11005KT 08/07 A299 RMK A01 T00830074  RH  094%=      5-min Rain = 0
KWE1 222044Z 10006KT 08/07 A299 RMK A01 T00830074  RH  094%=      5-min Rain = 0
KWE1 222045Z 10007KT 08/07 A299 RMK A01 T00820073  RH  094%=      5-min Rain = 0
KWE1 222046Z 10007KT 08/07 A299 RMK A01 T00810072  RH  094%=      5-min Rain = 0
KWE1 222047Z 09006KT 08/07 A299 RMK A01 T00810072  RH  094%=      5-min Rain = 0
KWE1 222048Z 09006KT 08/07 A299 RMK A01 T00810072  RH  094%=      5-min Rain = 0
KWE1 222049Z 10005KT 08/07 A299 RMK A01 T00810071  RH  094%=      5-min Rain = 0
KWE1 222050Z 10007KT 08/07 A299 RMK A01 T00820073  RH  094%=      5-min Rain = 0
KWE1 222051Z 09007KT 08/07 A299 RMK A01 T00820072  RH  094%=      5-min Rain = 0
KWE1 222052Z 10007KT 08/07 A299 RMK A01 T00810072  RH  094%=      5-min Rain = 0
KWE1 222053Z 10007KT 08/07 A299 RMK A01 T00820072  RH  094%=      5-min Rain = 0
KWE1 222054Z 10007KT 08/07 A299 RMK A01 T00820072  RH  094%=      5-min Rain = 0
KWE1 222055Z 11006KT 08/07 A299 RMK A01 T00810072  RH  094%=      5-min Rain = 0
KWE1 222056Z 11006KT 08/07 A299 RMK A01 T00810072  RH  094%=      5-min Rain = 0
KWE1 222057Z 11005KT 08/07 A299 RMK A01 T00810072  RH  094%=      5-min Rain = 0
KWE1 222058Z 10005KT 08/07 A299 RMK A01 T00810072  RH  094%=      5-min Rain = 0
KWE1 222059Z 10005KT 08/07 A299 RMK A01 T00810072  RH  094%=      5-min Rain = 0
KWE1 222100Z 10005KT 08/07 A299 RMK A01 T00810072  RH  094%=      5-min Rain = 0
KWE1 222101Z 10005KT 08/07 A299 RMK A01 T00820073  RH  094%=      5-min Rain = 0
KWE1 222102Z 10006KT 08/07 A299 RMK A01 T00820072  RH  094%=      5-min Rain = 0
KWE1 222103Z 09007KT 08/07 A299 RMK A01 T00820073  RH  094%=      5-min Rain = 0
KWE1 222104Z 09006KT 08/07 A299 RMK A01 T00820073  RH  094%=      5-min Rain = 0
KWE1 222105Z 09007KT 08/07 A299 RMK A01 T00820073  RH  094%=      5-min Rain = 0
KWE1 222106Z 10005KT 08/07 A299 RMK A01 T00820073  RH  094%=      5-min Rain = 0
KWE1 222107Z 09006KT 08/07 A299 RMK A01 T00820073  RH  094%=      5-min Rain = 0
KWE1 222108Z 09005KT 08/07 A299 RMK A01 T00820073  RH  094%=      5-min Rain = 0
KWE1 222109Z 10005KT 08/07 A299 RMK A01 T00820073  RH  094%=      5-min Rain = 0
KWE1 222110Z 10006KT 08/07 A299 RMK A01 T00830074  RH  094%=      5-min Rain = 0
KWE1 222111Z 10007KT 08/07 A299 RMK A01 T00830074  RH  094%=      5-min Rain = 0
KWE1 222112Z 09006KT 08/07 A2989 RMK A01 T00820073  RH  094%=      5-min Rain = 0
KWE1 222113Z 09005KT 08/07 A2989 RMK A01 T00820073  RH  094%=      5-min Rain = 0
KWE1 222114Z 09005KT 08/07 A2989 RMK A01 T00820073  RH  094%=      5-min Rain = 0
KWE1 222115Z 08005KT 08/07 A2989 RMK A01 T00810072  RH  094%=      5-min Rain = 0
KWE1 222116Z 09006KT 08/07 A2989 RMK A01 T00820073  RH  094%=      5-min Rain = 0
KWE1 222117Z 09006KT 08/07 A2989 RMK A01 T00820073  RH  094%=      5-min Rain = 0
KWE1 222118Z 09006KT 08/07 A2989 RMK A01 T00820073  RH  094%=      5-min Rain = 0
KWE1 222119Z 09007KT 08/07 A2989 RMK A01 T00820073  RH  094%=      5-min Rain = 0
KWE1 222120Z 08007KT 08/07 A2989 RMK A01 T00820073  RH  094%=      5-min Rain = 0
KWE1 222121Z 09006KT 08/07 A2989 RMK A01 T00820073  RH  094%=      5-min Rain = 0
KWE1 222122Z 09006KT 08/07 A2989 RMK A01 T00820073  RH  094%=      5-min Rain = 0
KWE1 222123Z 10007KT 08/07 A2989 RMK A01 T00820074  RH  094%=      5-min Rain = 0
KWE1 222124Z 09006KT 08/07 A2989 RMK A01 T00820074  RH  094%=      5-min Rain = 0
KWE1 222125Z 09006KT 08/08 A2989 RMK A01 T00830075  RH  094%=      5-min Rain = 0
KWE1 222126Z 08006KT 08/08 A2989 RMK A01 T00840075  RH  094%=      5-min Rain = 0
KWE1 222127Z 09007KT 08/08 A2989 RMK A01 T00830075  RH  094%=      5-min Rain = 0
KWE1 222128Z 09008KT 08/07 A2989 RMK A01 T00830074  RH  094%=      5-min Rain = 0
KWE1 222129Z 08006KT 08/07 A2989 RMK A01 T00830074  RH  094%=      5-min Rain = 0
KWE1 222130Z 08006KT 08/07 A2989 RMK A01 T00830074  RH  094%=      5-min Rain = 0
KWE1 222131Z 07005KT 08/07 A2989 RMK A01 T00830074  RH  094%=      5-min Rain = 0
KWE1 222132Z 07005KT 08/07 A2989 RMK A01 T00830074  RH  094%=      5-min Rain = 0
KWE1 222133Z 08005KT 08/08 A2989 RMK A01 T00830075  RH  094%=      5-min Rain = 0
KWE1 222134Z 08005KT 08/08 A2989 RMK A01 T00840075  RH  094%=      5-min Rain = 0
KWE1 222135Z 08006KT 08/08 A2989 RMK A01 T00840075  RH  094%=      5-min Rain = 0
KWE1 222136Z 09006KT 08/08 A2989 RMK A01 T00840075  RH  094%=      5-min Rain = 0
KWE1 222137Z 09006KT 08/08 A2989 RMK A01 T00840075  RH  094%=      5-min Rain = 0
KWE1 222138Z 10006KT 08/08 A2989 RMK A01 T00840075  RH  094%=      5-min Rain = 0
KWE1 222139Z 10006KT 08/08 A2989 RMK A01 T00840075  RH  094%=      5-min Rain = 0
KWE1 222140Z 10006KT 08/08 A2989 RMK A01 T00840075  RH  094%=      5-min Rain = 0
KWE1 222141Z 08006KT 08/08 A2989 RMK A01 T00830075  RH  094%=      5-min Rain = 0
KWE1 222142Z 08006KT 08/08 A2989 RMK A01 T00840075  RH  094%=      5-min Rain = 0
KWE1 222143Z 09006KT 08/08 A2989 RMK A01 T00840075  RH  094%=      5-min Rain = 0
KWE1 222144Z 09006KT 08/08 A2989 RMK A01 T00830075  RH  094%=      5-min Rain = 0
KWE1 222145Z 09007KT 08/07 A2989 RMK A01 T00830074  RH  094%=      5-min Rain = 0
KWE1 222146Z 08007KT 08/08 A2989 RMK A01 T00830075  RH  094%=      5-min Rain = 0
KWE1 222147Z 07007KT 08/07 A2989 RMK A01 T00830074  RH  094%=      5-min Rain = 0
KWE1 222148Z 08006KT 08/07 A2989 RMK A01 T00830074  RH  094%=      5-min Rain = 0
KWE1 222149Z 09007KT 08/07 A2989 RMK A01 T00830074  RH  094%=      5-min Rain = 0
KWE1 222150Z 09006KT 08/07 A2989 RMK A01 T00830074  RH  094%=      5-min Rain = 0
KWE1 222151Z 09006KT 08/07 A2989 RMK A01 T00830074  RH  094%=      5-min Rain = 0
KWE1 222152Z 10006KT 08/07 A2989 RMK A01 T00830074  RH  094%=      5-min Rain = 0
KWE1 222153Z 09005KT 08/08 A2989 RMK A01 T00830075  RH  094%=      5-min Rain = 0
KWE1 222154Z 09006KT 08/08 A2989 RMK A01 T00840075  RH  094%=      5-min Rain = 0
KWE1 222155Z 09006KT 08/08 A2989 RMK A01 T00840075  RH  094%=      5-min Rain = 0
KWE1 222156Z 09006KT 08/08 A2989 RMK A01 T00840075  RH  094%=      5-min Rain = 0
KWE1 222157Z 09005KT 08/08 A2989 RMK A01 T00840075  RH  094%=      5-min Rain = 0
KWE1 222158Z 08004KT 08/08 A2989 RMK A01 T00830075  RH  094%=      5-min Rain = 0
KWE1 222159Z 08004KT 08/08 A2989 RMK A01 T00840076  RH  094%=      5-min Rain = 0
KWE1 222200Z 08006KT 09/08 A2989 RMK A01 T00850076  RH  094%=      5-min Rain = 0
KWE1 222201Z 09004KT 08/08 A2989 RMK A01 T00840076  RH  094%=      5-min Rain = 0
KWE1 222202Z 08005KT 08/08 A2989 RMK A01 T00840075  RH  094%=      5-min Rain = 0
KWE1 222203Z 08005KT 08/08 A2989 RMK A01 T00840075  RH  094%=      5-min Rain = 0
KWE1 222204Z 08005KT 08/08 A2989 RMK A01 T00840075  RH  094%=      5-min Rain = 0
KWE1 222205Z 08005KT 08/08 A2988 RMK A01 T00840075  RH  094%=      5-min Rain = 0
KWE1 222206Z 08006KT 08/08 A2988 RMK A01 T00840075  RH  094%=      5-min Rain = 0
KWE1 222207Z 08006KT 08/08 A2988 RMK A01 T00840075  RH  094%=      5-min Rain = 0
KWE1 222208Z 09005KT 08/08 A2988 RMK A01 T00840075  RH  094%=      5-min Rain = 0
KWE1 222209Z 09006KT 09/08 A2988 RMK A01 T00850076  RH  094%=      5-min Rain = 0
KWE1 222210Z 09006KT 08/08 A2988 RMK A01 T00840076  RH  094%=      5-min Rain = 0
KWE1 222211Z 09005KT 08/08 A2988 RMK A01 T00840075  RH  094%=      5-min Rain = 0
KWE1 222212Z 09005KT 09/08 A2988 RMK A01 T00850076  RH  094%=      5-min Rain = 0
KWE1 222213Z 09004KT 09/08 A2988 RMK A01 T00850076  RH  094%=      5-min Rain = 0
KWE1 222214Z 09006KT 09/08 A2988 RMK A01 T00850077  RH  094%=      5-min Rain = 0
KWE1 222215Z 09006KT 09/08 A2988 RMK A01 T00850077  RH  094%=      5-min Rain = 0
KWE1 222216Z 08004KT 09/08 A2988 RMK A01 T00850077  RH  094%=      5-min Rain = 0
KWE1 222217Z 07005KT 09/08 A2988 RMK A01 T00850077  RH  094%=      5-min Rain = 0
KWE1 222218Z 09005KT 09/08 A2988 RMK A01 T00850077  RH  094%=      5-min Rain = 0
KWE1 222219Z 08006KT 09/08 A2988 RMK A01 T00860078  RH  094%=      5-min Rain = 0
KWE1 222220Z 09006KT 09/08 A2988 RMK A01 T00860077  RH  094%=      5-min Rain = 0
KWE1 222221Z 09006KT 09/08 A2989 RMK A01 T00860077  RH  094%=      5-min Rain = 0
KWE1 222222Z 09006KT 09/08 A2989 RMK A01 T00850077  RH  094%=      5-min Rain = 0
KWE1 222223Z 10005KT 09/08 A2989 RMK A01 T00850076  RH  094%=      5-min Rain = 0
KWE1 222224Z 09005KT 09/08 A2988 RMK A01 T00850077  RH  094%=      5-min Rain = 0
KWE1 222225Z 09005KT 09/08 A2988 RMK A01 T00860077  RH  094%=      5-min Rain = 0
KWE1 222226Z 09005KT 09/08 A2988 RMK A01 T00860077  RH  094%=      5-min Rain = 0
KWE1 222227Z 09006KT 09/08 A2988 RMK A01 T00860077  RH  094%=      5-min Rain = 0
KWE1 222228Z 10006KT 09/08 A2988 RMK A01 T00850077  RH  094%=      5-min Rain = 0
KWE1 222229Z 10005KT 09/08 A2988 RMK A01 T00850077  RH  094%=      5-min Rain = 0
KWE1 222230Z 10004KT 09/08 A2988 RMK A01 T00850077  RH  094%=      5-min Rain = 0
KWE1 222231Z 10005KT 09/08 A2988 RMK A01 T00850077  RH  094%=      5-min Rain = 0
KWE1 222232Z 08005KT 09/08 A2988 RMK A01 T00860077  RH  094%=      5-min Rain = 0
KWE1 222233Z 08005KT 09/08 A2988 RMK A01 T00860077  RH  094%=      5-min Rain = 0
KWE1 222234Z 08004KT 09/08 A2988 RMK A01 T00860077  RH  094%=      5-min Rain = 0
KWE1 222235Z 08004KT 09/08 A2988 RMK A01 T00860077  RH  094%=      5-min Rain = 0
KWE1 222236Z 08005KT 09/08 A2988 RMK A01 T00860077  RH  094%=      5-min Rain = 0
KWE1 222237Z 10006KT 09/08 A2988 RMK A01 T00860077  RH  094%=      5-min Rain = 0
KWE1 222238Z 10007KT 09/08 A2988 RMK A01 T00860077  RH  094%=      5-min Rain = 0
KWE1 222239Z 10007KT 09/08 A2988 RMK A01 T00860077  RH  094%=      5-min Rain = 0
KWE1 222240Z 09006KT 09/08 A2988 RMK A01 T00850077  RH  094%=      5-min Rain = 0
KWE1 222241Z 10005KT 09/08 A2988 RMK A01 T00850076  RH  094%=      5-min Rain = 0
KWE1 222242Z 10005KT 09/08 A2988 RMK A01 T00850076  RH  094%=      5-min Rain = 0
KWE1 222243Z 10006KT 08/08 A2988 RMK A01 T00840076  RH  094%=      5-min Rain = 0
KWE1 222244Z 10005KT 09/08 A2988 RMK A01 T00850076  RH  094%=      5-min Rain = 0
KWE1 222245Z 10005KT 08/08 A2988 RMK A01 T00840076  RH  094%=      5-min Rain = 0
KWE1 222246Z 10006KT 09/08 A2988 RMK A01 T00850076  RH  094%=      5-min Rain = 0
KWE1 222247Z 10005KT 09/08 A2988 RMK A01 T00850076  RH  094%=      5-min Rain = 0
KWE1 222248Z 09004KT 09/08 A2988 RMK A01 T00850077  RH  095%=      5-min Rain = 0
KWE1 222249Z 09007KT 09/08 A2988 RMK A01 T00860078  RH  095%=      5-min Rain = 0
KWE1 222250Z 09006KT 09/08 A2988 RMK A01 T00850077  RH  095%=      5-min Rain = 0
KWE1 222251Z 09007KT 09/08 A2988 RMK A01 T00850077  RH  094%=      5-min Rain = 0
KWE1 222252Z 08007KT 09/08 A2988 RMK A01 T00850077  RH  095%=      5-min Rain = 0
KWE1 222253Z 08006KT 09/08 A2988 RMK A01 T00850076  RH  094%=      5-min Rain = 0
KWE1 222254Z 08006KT 09/08 A2988 RMK A01 T00850076  RH  094%=      5-min Rain = 0
KWE1 222255Z 09006KT 09/08 A2988 RMK A01 T00850076  RH  095%=      5-min Rain = 0
KWE1 222256Z 09007KT 09/08 A2988 RMK A01 T00850077  RH  095%=      5-min Rain = 0
KWE1 222257Z 10007KT 09/08 A2988 RMK A01 T00850077  RH  095%=      5-min Rain = 0
KWE1 222258Z 10007KT 09/08 A2988 RMK A01 T00850076  RH  094%=      5-min Rain = 0
KWE1 222259Z 10007KT 09/08 A2988 RMK A01 T00850076  RH  095%=      5-min Rain = 0
KWE1 222300Z 10007KT 09/08 A2987 RMK A01 T00850076  RH  095%=      5-min Rain = 0
KWE1 222301Z 10007KT 09/08 A2987 RMK A01 T00850076  RH  095%=      5-min Rain = 0
KWE1 222302Z 09007KT 09/08 A2987 RMK A01 T00850076  RH  095%=      5-min Rain = 0
KWE1 222303Z 09006KT 09/08 A2987 RMK A01 T00850076  RH  095%=      5-min Rain = 0
KWE1 222304Z 09005KT 09/08 A2987 RMK A01 T00850076  RH  095%=      5-min Rain = 0
KWE1 222305Z 09005KT 09/08 A2987 RMK A01 T00850077  RH  095%=      5-min Rain = 0
KWE1 222306Z 09007KT 09/08 A2987 RMK A01 T00850077  RH  095%=      5-min Rain = 0
KWE1 222307Z 09007KT 09/08 A2987 RMK A01 T00850077  RH  095%=      5-min Rain = 0
KWE1 222308Z 10007KT 09/08 A2987 RMK A01 T00850077  RH  095%=      5-min Rain = 0
KWE1 222309Z 09008KT 09/08 A2987 RMK A01 T00850076  RH  095%=      5-min Rain = 0
KWE1 222310Z 09006KT 09/08 A2987 RMK A01 T00850076  RH  095%=      5-min Rain = 0
KWE1 222311Z 09006KT 09/08 A2987 RMK A01 T00850076  RH  095%=      5-min Rain = 0
KWE1 222312Z 09007KT 08/08 A2987 RMK A01 T00840076  RH  095%=      5-min Rain = 0
KWE1 222313Z 09007KT 09/08 A2987 RMK A01 T00850076  RH  095%=      5-min Rain = 0
KWE1 222314Z 10007KT 09/08 A2987 RMK A01 T00850077  RH  095%=      5-min Rain = 0
KWE1 222315Z 09005KT 09/08 A2987 RMK A01 T00850077  RH  095%=      5-min Rain = 0
KWE1 222316Z 10007KT 09/08 A2987 RMK A01 T00850077  RH  095%=      5-min Rain = 0
KWE1 222317Z 10007KT 09/08 A2987 RMK A01 T00850077  RH  095%=      5-min Rain = 0
KWE1 222318Z 10006KT 09/08 A2987 RMK A01 T00850077  RH  095%=      5-min Rain = 0
KWE1 222319Z 10005KT 09/08 A2987 RMK A01 T00850077  RH  095%=      5-min Rain = 0
KWE1 222320Z 10007KT 09/08 A2987 RMK A01 T00850077  RH  095%=      5-min Rain = 0
KWE1 222321Z 10007KT 09/08 A2987 RMK A01 T00850077  RH  095%=      5-min Rain = 0
KWE1 222322Z 10007KT 09/08 A2986 RMK A01 T00850077  RH  095%=      5-min Rain = 0
KWE1 222323Z 10007KT 09/08 A2986 RMK A01 T00850078  RH  095%=      5-min Rain = 0
KWE1 222324Z 09007KT 09/08 A2986 RMK A01 T00850077  RH  095%=      5-min Rain = 0
KWE1 222325Z 09006KT 09/08 A2986 RMK A01 T00850078  RH  095%=      5-min Rain = 0
KWE1 222326Z 09007KT 09/08 A2987 RMK A01 T00850078  RH  095%=      5-min Rain = 0
KWE1 222327Z 10007KT 09/08 A2987 RMK A01 T00850077  RH  095%=      5-min Rain = 0
KWE1 222328Z 09006KT 09/08 A2987 RMK A01 T00850077  RH  095%=      5-min Rain = 0
KWE1 222329Z 10007KT 09/08 A2987 RMK A01 T00860078  RH  095%=      5-min Rain = 0
KWE1 222330Z 09009KT 09/08 A2987 RMK A01 T00850077  RH  095%=      5-min Rain = 0
KWE1 222331Z 10009KT 09/08 A2987 RMK A01 T00850077  RH  095%=      5-min Rain = 0
KWE1 222332Z 09009KT 09/08 A2987 RMK A01 T00850077  RH  095%=      5-min Rain = 0
KWE1 222333Z 10008KT 09/08 A2987 RMK A01 T00850077  RH  095%=      5-min Rain = 0
KWE1 222334Z 09009KT 09/08 A2987 RMK A01 T00850077  RH  095%=      5-min Rain = 0
KWE1 222335Z 10008KT 09/08 A2987 RMK A01 T00850077  RH  095%=      5-min Rain = 0
KWE1 222336Z 09008KT 09/08 A2987 RMK A01 T00850077  RH  095%=      5-min Rain = 0
KWE1 222337Z 10008KT 09/08 A2987 RMK A01 T00850077  RH  095%=      5-min Rain = 0
KWE1 222338Z 10007KT 09/08 A2987 RMK A01 T00850077  RH  095%=      5-min Rain = 0
KWE1 222339Z 10008KT 08/08 A2986 RMK A01 T00840077  RH  095%=      5-min Rain = 0
KWE1 222340Z 10008KT 08/08 A2986 RMK A01 T00840077  RH  095%=      5-min Rain = 0
KWE1 222341Z 10008KT 09/08 A2986 RMK A01 T00850077  RH  095%=      5-min Rain = 0
KWE1 222342Z 10008KT 08/08 A2986 RMK A01 T00840076  RH  095%=      5-min Rain = 0
KWE1 222343Z 10008KT 09/08 A2986 RMK A01 T00850077  RH  095%=      5-min Rain = 0
KWE1 222344Z 10008KT 09/08 A2986 RMK A01 T00850077  RH  095%=      5-min Rain = 0
KWE1 222345Z 11007KT 09/08 A2986 RMK A01 T00850077  RH  095%=      5-min Rain = 0
KWE1 222346Z 11007KT 09/08 A2987 RMK A01 T00850077  RH  095%=      5-min Rain = 0
KWE1 222347Z 11006KT 08/08 A2987 RMK A01 T00840077  RH  095%=      5-min Rain = 0
KWE1 222348Z 11007KT 08/08 A2987 RMK A01 T00840077  RH  095%=      5-min Rain = 0
KWE1 222349Z 11007KT 09/08 A2987 RMK A01 T00850077  RH  095%=      5-min Rain = 0
KWE1 222350Z 11006KT 08/08 A2987 RMK A01 T00840076  RH  095%=      5-min Rain = 0
KWE1 222351Z 10007KT 08/08 A2986 RMK A01 T00840076  RH  095%=      5-min Rain = 0
KWE1 222352Z 10007KT 08/08 A2986 RMK A01 T00840076  RH  095%=      5-min Rain = 0
KWE1 222353Z 09008KT 08/08 A2986 RMK A01 T00840076  RH  095%=      5-min Rain = 0
KWE1 222354Z 09007KT 08/08 A2986 RMK A01 T00840076  RH  095%=      5-min Rain = 0
KWE1 222355Z 10006KT 08/08 A2986 RMK A01 T00840076  RH  095%=      5-min Rain = 0
KWE1 222356Z 10007KT 08/08 A2986 RMK A01 T00840076  RH  095%=      5-min Rain = 0
KWE1 222357Z 10007KT 08/08 A2986 RMK A01 T00840076  RH  095%=      5-min Rain = 0
KWE1 222358Z 10007KT 08/08 A2986 RMK A01 T00840076  RH  095%=      5-min Rain = 0
KWE1 222359Z 10006KT 08/08 A2986 RMK A01 T00840077  RH  095%=      5-min Rain = 0
KWE1 230000Z 09007KT 08/08 A2986 RMK A01 T00840076  RH  095%=      5-min Rain = 0
KWE1 230001Z 08007KT 08/08 A2986 RMK A01 T00840076  RH  095%=      5-min Rain = 0
KWE1 230002Z 08009KT 08/08 A2986 RMK A01 T00830076  RH  095%=      5-min Rain = 0
KWE1 230003Z 08006KT 08/08 A2986 RMK A01 T00830075  RH  095%=      5-min Rain = 0
KWE1 230004Z 10007KT 08/08 A2986 RMK A01 T00830075  RH  095%=      5-min Rain = 0
KWE1 230005Z 09006KT 08/08 A2986 RMK A01 T00830076  RH  095%=      5-min Rain = 0
KWE1 230006Z 09007KT 08/08 A2986 RMK A01 T00830075  RH  095%=      5-min Rain = 0
KWE1 230007Z 09007KT 08/08 A2986 RMK A01 T00830076  RH  095%=      5-min Rain = 0
KWE1 230008Z 09007KT 08/08 A2986 RMK A01 T00830076  RH  095%=      5-min Rain = 0
KWE1 230009Z 10007KT 08/08 A2986 RMK A01 T00830076  RH  095%=      5-min Rain = 0
KWE1 230010Z 10006KT 08/08 A2986 RMK A01 T00830076  RH  095%=      5-min Rain = 0
KWE1 230011Z 10006KT 08/08 A2985 RMK A01 T00830076  RH  095%=      5-min Rain = 0
KWE1 230012Z 10008KT 08/08 A2985 RMK A01 T00830076  RH  095%=      5-min Rain = 0
KWE1 230013Z 10008KT 08/08 A2985 RMK A01 T00830076  RH  095%=      5-min Rain = 0
KWE1 230014Z 11008KT 08/08 A2985 RMK A01 T00830075  RH  095%=      5-min Rain = 0
KWE1 230015Z 11007KT 08/08 A2985 RMK A01 T00820075  RH  095%=      5-min Rain = 0
KWE1 230016Z 11007KT 08/08 A2985 RMK A01 T00830075  RH  095%=      5-min Rain = 0
KWE1 230017Z 10007KT 08/08 A2985 RMK A01 T00830075  RH  095%=      5-min Rain = 0
KWE1 230018Z 10008KT 08/08 A2985 RMK A01 T00830075  RH  095%=      5-min Rain = 0
KWE1 230019Z 09008KT 08/08 A2985 RMK A01 T00830075  RH  095%=      5-min Rain = 0
KWE1 230020Z 10009KT 08/08 A2985 RMK A01 T00830075  RH  095%=      5-min Rain = 0
KWE1 230021Z 10007KT 08/08 A2985 RMK A01 T00830075  RH  095%=      5-min Rain = 0
KWE1 230022Z 11007KT 08/08 A2985 RMK A01 T00830076  RH  095%=      5-min Rain = 0
KWE1 230023Z 11009KT 08/08 A2985 RMK A01 T00830076  RH  095%=      5-min Rain = 0
KWE1 230024Z 11008KT 08/08 A2985 RMK A01 T00820075  RH  095%=      5-min Rain = 0
KWE1 230025Z 11007KT 08/08 A2985 RMK A01 T00820075  RH  095%=      5-min Rain = 0
KWE1 230026Z 11008KT 08/08 A2985 RMK A01 T00820075  RH  095%=      5-min Rain = 0
KWE1 230027Z 11007KT 08/08 A2985 RMK A01 T00820075  RH  095%=      5-min Rain = 0
KWE1 230028Z 11007KT 08/08 A2985 RMK A01 T00820075  RH  095%=      5-min Rain = 0
KWE1 230029Z 11008KT 08/08 A2985 RMK A01 T00820075  RH  095%=      5-min Rain = 0
KWE1 230030Z 10007KT 08/08 A2985 RMK A01 T00820075  RH  095%=      5-min Rain = 0
KWE1 230031Z 10007KT 08/08 A2985 RMK A01 T00820075  RH  095%=      5-min Rain = 0
KWE1 230032Z 11008KT 08/08 A2985 RMK A01 T00820075  RH  095%=      5-min Rain = 0
KWE1 230033Z 11009KT 08/08 A2985 RMK A01 T00820075  RH  095%=      5-min Rain = 0
KWE1 230034Z 11008KT 08/08 A2985 RMK A01 T00820075  RH  095%=      5-min Rain = 0
KWE1 230035Z 10008KT 08/08 A2985 RMK A01 T00820075  RH  095%=      5-min Rain = 0
KWE1 230036Z 10010KT 08/08 A2985 RMK A01 T00820075  RH  095%=      5-min Rain = 0
KWE1 230037Z 10009KT 08/07 A2985 RMK A01 T00810074  RH  095%=      5-min Rain = 0
KWE1 230038Z 11009KT 08/07 A2985 RMK A01 T00810074  RH  095%=      5-min Rain = 0
KWE1 230039Z 10008KT 08/07 A2985 RMK A01 T00810074  RH  095%=      5-min Rain = 0
KWE1 230040Z 10007KT 08/07 A2985 RMK A01 T00810074  RH  095%=      5-min Rain = 0
KWE1 230041Z 10008KT 08/07 A2985 RMK A01 T00820074  RH  095%=      5-min Rain = 0
KWE1 230042Z 11007KT 08/07 A2985 RMK A01 T00810074  RH  095%=      5-min Rain = 0
KWE1 230043Z 11006KT 08/07 A2985 RMK A01 T00810074  RH  095%=      5-min Rain = 0
KWE1 230044Z 11007KT 08/07 A2985 RMK A01 T00810074  RH  095%=      5-min Rain = 0
KWE1 230045Z 11005KT 08/07 A2985 RMK A01 T00810074  RH  095%=      5-min Rain = 0
KWE1 230046Z 10006KT 08/07 A2985 RMK A01 T00810074  RH  095%=      5-min Rain = 0
KWE1 230047Z 10008KT 08/07 A2985 RMK A01 T00820074  RH  095%=      5-min Rain = 0
KWE1 230048Z 11007KT 08/07 A2985 RMK A01 T00810074  RH  095%=      5-min Rain = 0
KWE1 230049Z 11007KT 08/07 A2985 RMK A01 T00810074  RH  095%=      5-min Rain = 0
KWE1 230050Z 10006KT 08/07 A2985 RMK A01 T00810074  RH  095%=      5-min Rain = 0
KWE1 230051Z 11006KT 08/07 A2985 RMK A01 T00810074  RH  095%=      5-min Rain = 0
KWE1 230052Z 11006KT 08/07 A2986 RMK A01 T00810074  RH  095%=      5-min Rain = 0
KWE1 230053Z 11005KT 08/07 A2986 RMK A01 T00810074  RH  095%=      5-min Rain = 0
KWE1 230054Z 11006KT 08/07 A2986 RMK A01 T00810074  RH  095%=      5-min Rain = 0
KWE1 230055Z 12006KT 08/07 A2986 RMK A01 T00810074  RH  095%=      5-min Rain = 0
KWE1 230056Z 12007KT 08/07 A2986 RMK A01 T00810074  RH  095%=      5-min Rain = 0
KWE1 230057Z 11007KT 08/07 A2986 RMK A01 T00810074  RH  095%=      5-min Rain = 0
KWE1 230058Z 11006KT 08/07 A2986 RMK A01 T00810074  RH  095%=      5-min Rain = 0
KWE1 230059Z 11006KT 08/07 A2986 RMK A01 T00810074  RH  095%=      5-min Rain = 0
KWE1 230100Z 11006KT 08/07 A2986 RMK A01 T00810074  RH  095%=      5-min Rain = 0
KWE1 230101Z 11006KT 08/07 A2986 RMK A01 T00810074  RH  096%=      5-min Rain = 0
KWE1 230102Z 11006KT 08/07 A2986 RMK A01 T00810074  RH  096%=      5-min Rain = 0
KWE1 230103Z 10005KT 08/07 A2986 RMK A01 T00810074  RH  096%=      5-min Rain = 0
KWE1 230104Z 10005KT 08/07 A2986 RMK A01 T00810074  RH  096%=      5-min Rain = 0
KWE1 230105Z 10004KT 08/07 A2986 RMK A01 T00810074  RH  096%=      5-min Rain = 0
KWE1 230106Z 10005KT 08/07 A2986 RMK A01 T00810074  RH  096%=      5-min Rain = 0
KWE1 230107Z 10005KT 08/08 A2986 RMK A01 T00810075  RH  096%=      5-min Rain = 0
KWE1 230108Z 10005KT 08/07 A2986 RMK A01 T00810074  RH  096%=      5-min Rain = 0
KWE1 230109Z 11004KT 08/07 A2986 RMK A01 T00810074  RH  096%=      5-min Rain = 0
KWE1 230110Z 11004KT 08/07 A2986 RMK A01 T00810074  RH  096%=      5-min Rain = 0
KWE1 230111Z 11005KT 08/07 A2986 RMK A01 T00810074  RH  096%=      5-min Rain = 0
KWE1 230112Z 10004KT 08/08 A2986 RMK A01 T00810075  RH  096%=      5-min Rain = 0
KWE1 230113Z 11004KT 08/07 A2986 RMK A01 T00810074  RH  096%=      5-min Rain = 0
KWE1 230114Z 10005KT 08/07 A2986 RMK A01 T00810074  RH  096%=      5-min Rain = 0
KWE1 230115Z 10005KT 08/07 A2986 RMK A01 T00810074  RH  096%=      5-min Rain = 0
KWE1 230116Z 10006KT 08/07 A2986 RMK A01 T00810074  RH  096%=      5-min Rain = 0
KWE1 230117Z 10005KT 08/07 A2986 RMK A01 T00810074  RH  096%=      5-min Rain = 0
KWE1 230118Z 10005KT 08/07 A2986 RMK A01 T00810074  RH  096%=      5-min Rain = 0
KWE1 230119Z 10005KT 08/07 A2986 RMK A01 T00810074  RH  096%=      5-min Rain = 0
KWE1 230120Z 10006KT 08/07 A2986 RMK A01 T00810074  RH  096%=      5-min Rain = 0
KWE1 230121Z 10006KT 08/07 A2986 RMK A01 T00810074  RH  096%=      5-min Rain = 0
KWE1 230122Z 10007KT 08/07 A2986 RMK A01 T00810074  RH  096%=      5-min Rain = 0
KWE1 230123Z 10007KT 08/07 A2986 RMK A01 T00810074  RH  096%=      5-min Rain = 0
KWE1 230124Z 10008KT 08/07 A2986 RMK A01 T00810074  RH  096%=      5-min Rain = 0
KWE1 230125Z 11008KT 08/07 A2986 RMK A01 T00810074  RH  096%=      5-min Rain = 0
KWE1 230126Z 10008KT 08/08 A2986 RMK A01 T00810075  RH  096%=      5-min Rain = 0
KWE1 230127Z 10008KT 08/07 A2985 RMK A01 T00810074  RH  096%=      5-min Rain = 0
KWE1 230128Z 10008KT 08/07 A2985 RMK A01 T00810074  RH  096%=      5-min Rain = 0
KWE1 230129Z 10006KT 08/08 A2985 RMK A01 T00810075  RH  096%=      5-min Rain = 0
KWE1 230130Z 10008KT 08/07 A2985 RMK A01 T00810074  RH  096%=      5-min Rain = 0
KWE1 230131Z 10007KT 08/07 A2985 RMK A01 T00810074  RH  096%=      5-min Rain = 0
KWE1 230132Z 10006KT 08/08 A2985 RMK A01 T00810075  RH  096%=      5-min Rain = 0
KWE1 230133Z 10009KT 08/08 A2985 RMK A01 T00810075  RH  096%=      5-min Rain = 0
KWE1 230134Z 10009KT 08/08 A2985 RMK A01 T00810075  RH  096%=      5-min Rain = 0
KWE1 230135Z 10009KT 08/08 A2985 RMK A01 T00810075  RH  096%=      5-min Rain = 0
KWE1 230136Z 10009KT 08/07 A2985 RMK A01 T00810074  RH  096%=      5-min Rain = 0
KWE1 230137Z 10010KT 08/07 A2985 RMK A01 T00810074  RH  096%=      5-min Rain = 0
KWE1 230138Z 11010KT 08/07 A2985 RMK A01 T00810074  RH  096%=      5-min Rain = 0
KWE1 230139Z 11009KT 08/07 A2986 RMK A01 T00810074  RH  096%=      5-min Rain = 0
KWE1 230140Z 11009KT 08/08 A2986 RMK A01 T00810075  RH  096%=      5-min Rain = 0
KWE1 230141Z 10008G13KT 08/07 A2986 RMK A01 T00810074  RH  096%=      5-min Rain = 0
KWE1 230142Z 11009KT 08/08 A2986 RMK A01 T00810075  RH  096%=      5-min Rain = 0
KWE1 230143Z 11008KT 08/08 A2985 RMK A01 T00810075  RH  096%=      5-min Rain = 0
KWE1 230144Z 11008KT 08/08 A2985 RMK A01 T00810075  RH  096%=      5-min Rain = 0
KWE1 230145Z 12008KT 08/08 A2985 RMK A01 T00810075  RH  096%=      5-min Rain = 0
KWE1 230146Z 11007KT 08/07 A2985 RMK A01 T00810074  RH  096%=      5-min Rain = 0
KWE1 230147Z 11008KT 08/07 A2985 RMK A01 T00810074  RH  096%=      5-min Rain = 0
KWE1 230148Z 11010KT 08/07 A2985 RMK A01 T00800074  RH  096%=      5-min Rain = 0
KWE1 230149Z 11008KT 08/07 A2985 RMK A01 T00800074  RH  096%=      5-min Rain = 0
KWE1 230150Z 12009KT 08/07 A2985 RMK A01 T00800074  RH  096%=      5-min Rain = 0
KWE1 230151Z 12009KT 08/07 A2985 RMK A01 T00800074  RH  096%=      5-min Rain = 0
KWE1 230152Z 12008KT 08/07 A2985 RMK A01 T00810074  RH  096%=      5-min Rain = 0
KWE1 230153Z 12008KT 08/07 A2985 RMK A01 T00800074  RH  096%=      5-min Rain = 0
KWE1 230154Z 12009KT 08/07 A2986 RMK A01 T00800074  RH  096%=      5-min Rain = 0
KWE1 230155Z 12009KT 08/07 A2986 RMK A01 T00800074  RH  096%=      5-min Rain = 0
KWE1 230156Z 12010KT 08/07 A2986 RMK A01 T00800074  RH  096%=      5-min Rain = 0
KWE1 230157Z 12007KT 08/07 A2986 RMK A01 T00800074  RH  096%=      5-min Rain = 0
KWE1 230158Z 12008KT 08/07 A2986 RMK A01 T00800074  RH  096%=      5-min Rain = 0
KWE1 230159Z 13008KT 08/07 A2986 RMK A01 T00810074  RH  096%=      5-min Rain = 0
KWE1 230200Z 12008KT 08/07 A2986 RMK A01 T00810074  RH  096%=      5-min Rain = 0
KWE1 230201Z 12008KT 08/07 A2986 RMK A01 T00800074  RH  096%=      5-min Rain = 0
KWE1 230202Z 12007KT 08/07 A2986 RMK A01 T00800074  RH  096%=      5-min Rain = 0
KWE1 230203Z 12008KT 08/07 A2986 RMK A01 T00800074  RH  096%=      5-min Rain = 0
KWE1 230204Z 12009KT 08/07 A2986 RMK A01 T00810074  RH  096%=      5-min Rain = 0
KWE1 230205Z 12008KT 08/07 A2986 RMK A01 T00800074  RH  096%=      5-min Rain = 0
KWE1 230206Z 11008KT 08/07 A2986 RMK A01 T00800074  RH  096%=      5-min Rain = 0
KWE1 230207Z 11008KT 08/07 A2985 RMK A01 T00800074  RH  096%=      5-min Rain = 0
KWE1 230208Z 12008KT 08/07 A2986 RMK A01 T00800074  RH  096%=      5-min Rain = 0
KWE1 230209Z 12008KT 08/07 A2986 RMK A01 T00810074  RH  096%=      5-min Rain = 0
KWE1 230210Z 12009KT 08/07 A2986 RMK A01 T00800074  RH  096%=      5-min Rain = 0
KWE1 230211Z 12009KT 08/07 A2986 RMK A01 T00810074  RH  096%=      5-min Rain = 0
KWE1 230212Z 12008KT 08/07 A2986 RMK A01 T00800074  RH  096%=      5-min Rain = 0
KWE1 230213Z 12009KT 08/07 A2986 RMK A01 T00800074  RH  096%=      5-min Rain = 0
KWE1 230214Z 12009KT 08/07 A2985 RMK A01 T00800074  RH  096%=      5-min Rain = 0
KWE1 230215Z 11008KT 08/07 A2985 RMK A01 T00800074  RH  096%=      5-min Rain = 0
KWE1 230216Z 12009KT 08/07 A2986 RMK A01 T00800074  RH  096%=      5-min Rain = 0
KWE1 230217Z 12008KT 08/07 A2986 RMK A01 T00800074  RH  096%=      5-min Rain = 0
KWE1 230218Z 12007KT 08/07 A2986 RMK A01 T00800074  RH  096%=      5-min Rain = 0
KWE1 230219Z 11007KT 08/07 A2986 RMK A01 T00800074  RH  096%=      5-min Rain = 0
KWE1 230220Z 12007KT 08/07 A2986 RMK A01 T00800074  RH  096%=      5-min Rain = 0
KWE1 230221Z 12008KT 08/07 A2986 RMK A01 T00810074  RH  096%=      5-min Rain = 0
KWE1 230222Z 11009KT 08/07 A2986 RMK A01 T00810074  RH  096%=      5-min Rain = 0
KWE1 230223Z 12008KT 08/07 A2986 RMK A01 T00810074  RH  096%=      5-min Rain = 0
KWE1 230224Z 12008KT 08/07 A2986 RMK A01 T00800074  RH  096%=      5-min Rain = 0
KWE1 230225Z 13006KT 08/07 A2986 RMK A01 T00800074  RH  096%=      5-min Rain = 0
KWE1 230226Z 12006KT 08/07 A2986 RMK A01 T00800074  RH  096%=      5-min Rain = 0
KWE1 230227Z 12006KT 08/07 A2986 RMK A01 T00800074  RH  096%=      5-min Rain = 0
KWE1 230228Z 12006KT 08/07 A2986 RMK A01 T00800074  RH  096%=      5-min Rain = 0
KWE1 230229Z 12007KT 08/07 A2986 RMK A01 T00800074  RH  096%=      5-min Rain = 0
KWE1 230230Z 11006KT 08/07 A2986 RMK A01 T00800074  RH  096%=      5-min Rain = 0
KWE1 230231Z 11005KT 08/07 A2986 RMK A01 T00800074  RH  096%=      5-min Rain = 0
KWE1 230232Z 11005KT 08/07 A2986 RMK A01 T00800074  RH  096%=      5-min Rain = 0
KWE1 230233Z 12005KT 08/08 A2986 RMK A01 T00810075  RH  096%=      5-min Rain = 0
KWE1 230234Z 13007KT 08/08 A2987 RMK A01 T00810075  RH  096%=      5-min Rain = 0
KWE1 230235Z 12006KT 08/08 A2987 RMK A01 T00810075  RH  096%=      5-min Rain = 0
KWE1 230236Z 13006KT 08/08 A2987 RMK A01 T00810075  RH  096%=      5-min Rain = 0
KWE1 230237Z 13007KT 08/08 A2987 RMK A01 T00810075  RH  096%=      5-min Rain = 0
KWE1 230238Z 12006KT 08/08 A2987 RMK A01 T00810075  RH  096%=      5-min Rain = 0
KWE1 230239Z 12005KT 08/08 A2987 RMK A01 T00810075  RH  096%=      5-min Rain = 0
KWE1 230240Z 12007KT 08/08 A2987 RMK A01 T00810075  RH  096%=      5-min Rain = 0
KWE1 230241Z 12006KT 08/08 A2987 RMK A01 T00810075  RH  096%=      5-min Rain = 0
KWE1 230242Z 11005KT 08/08 A2987 RMK A01 T00810075  RH  096%=      5-min Rain = 0
KWE1 230243Z 11006KT 08/08 A2987 RMK A01 T00810075  RH  096%=      5-min Rain = 0
KWE1 230244Z 11005KT 08/08 A2987 RMK A01 T00810075  RH  096%=      5-min Rain = 0
KWE1 230245Z 11004KT 08/08 A2987 RMK A01 T00810075  RH  096%=      5-min Rain = 0
KWE1 230246Z 12004KT 08/08 A2987 RMK A01 T00810075  RH  096%=      5-min Rain = 0
KWE1 230247Z 10005KT 08/08 A2987 RMK A01 T00810075  RH  096%=      5-min Rain = 0
KWE1 230248Z 11005KT 08/08 A2987 RMK A01 T00810075  RH  096%=      5-min Rain = 0
KWE1 230249Z 12005KT 08/08 A2987 RMK A01 T00810076  RH  096%=      5-min Rain = 0
KWE1 230250Z 11004KT 08/08 A2987 RMK A01 T00810076  RH  096%=      5-min Rain = 0
KWE1 230251Z 11006KT 08/08 A2987 RMK A01 T00820076  RH  096%=      5-min Rain = 0
KWE1 230252Z 12007KT 08/08 A2987 RMK A01 T00810076  RH  096%=      5-min Rain = 0
KWE1 230253Z 11007KT 08/08 A2987 RMK A01 T00810076  RH  096%=      5-min Rain = 0
KWE1 230254Z 11008KT 08/08 A2987 RMK A01 T00820076  RH  096%=      5-min Rain = 0
KWE1 230255Z 11008KT 08/08 A2987 RMK A01 T00810076  RH  096%=      5-min Rain = 0
KWE1 230256Z 11006KT 08/08 A2987 RMK A01 T00810076  RH  096%=      5-min Rain = 0
KWE1 230257Z 12007KT 08/08 A2987 RMK A01 T00820076  RH  096%=      5-min Rain = 0
KWE1 230258Z 11006KT 08/08 A2987 RMK A01 T00810076  RH  096%=      5-min Rain = 0
KWE1 230259Z 11007KT 08/08 A2987 RMK A01 T00810076  RH  096%=      5-min Rain = 0
KWE1 230300Z 11006KT 08/08 A2987 RMK A01 T00820076  RH  096%=      5-min Rain = 0
KWE1 230301Z 11007KT 08/08 A2987 RMK A01 T00810076  RH  096%=      5-min Rain = 0
KWE1 230302Z 12008KT 08/08 A2987 RMK A01 T00810076  RH  096%=      5-min Rain = 0
KWE1 230303Z 11007KT 08/08 A2986 RMK A01 T00810075  RH  096%=      5-min Rain = 0
KWE1 230304Z 10006KT 08/08 A2986 RMK A01 T00810076  RH  096%=      5-min Rain = 0
KWE1 230305Z 10008KT 08/08 A2986 RMK A01 T00810075  RH  096%=      5-min Rain = 0
KWE1 230306Z 10007KT 08/08 A2986 RMK A01 T00810076  RH  096%=      5-min Rain = 0
KWE1 230307Z 10007KT 08/08 A2986 RMK A01 T00820076  RH  096%=      5-min Rain = 0
KWE1 230308Z 10007KT 08/08 A2986 RMK A01 T00820076  RH  096%=      5-min Rain = 0
KWE1 230309Z 10006KT 08/08 A2985 RMK A01 T00820076  RH  096%=      5-min Rain = 0
KWE1 230310Z 10007KT 08/08 A2985 RMK A01 T00820076  RH  096%=      5-min Rain = 0
KWE1 230311Z 09006KT 08/08 A2985 RMK A01 T00820076  RH  096%=      5-min Rain = 0
KWE1 230312Z 08007KT 08/08 A2985 RMK A01 T00820076  RH  096%=      5-min Rain = 0
KWE1 230313Z 08007KT 08/08 A2985 RMK A01 T00820076  RH  096%=      5-min Rain = 0
KWE1 230314Z 09008KT 08/08 A2985 RMK A01 T00820076  RH  096%=      5-min Rain = 0
KWE1 230315Z 09007KT 08/08 A2985 RMK A01 T00820076  RH  096%=      5-min Rain = 0
KWE1 230316Z 08007KT 08/08 A2985 RMK A01 T00820076  RH  096%=      5-min Rain = 0
KWE1 230317Z 08008KT 08/08 A2984 RMK A01 T00820076  RH  096%=      5-min Rain = 0
KWE1 230318Z 08007KT 08/08 A2984 RMK A01 T00820076  RH  096%=      5-min Rain = 0
KWE1 230319Z 08008KT 08/08 A2984 RMK A01 T00820076  RH  096%=      5-min Rain = 0
KWE1 230320Z 08008KT 08/08 A2984 RMK A01 T00820076  RH  096%=      5-min Rain = 0
KWE1 230321Z 08008KT 08/08 A2984 RMK A01 T00820076  RH  096%=      5-min Rain = 0
KWE1 230322Z 09007KT 08/08 A2984 RMK A01 T00820076  RH  096%=      5-min Rain = 0
KWE1 230323Z 09008KT 08/08 A2984 RMK A01 T00820076  RH  096%=      5-min Rain = 0
KWE1 230324Z 09008KT 08/08 A2984 RMK A01 T00820076  RH  096%=      5-min Rain = 0
KWE1 230325Z 09009KT 08/08 A2983 RMK A01 T00820076  RH  096%=      5-min Rain = 0
KWE1 230326Z 09008KT 08/08 A2983 RMK A01 T00820077  RH  096%=      5-min Rain = 0
KWE1 230327Z 09009KT 08/08 A2983 RMK A01 T00820076  RH  096%=      5-min Rain = 0
KWE1 230328Z 09009KT 08/08 A2983 RMK A01 T00820076  RH  096%=      5-min Rain = 0
KWE1 230329Z 09009KT 08/08 A2983 RMK A01 T00820077  RH  096%=      5-min Rain = 0
KWE1 230330Z 09010KT 08/08 A2983 RMK A01 T00820076  RH  096%=      5-min Rain = 0
KWE1 230331Z 10008KT 08/08 A2983 RMK A01 T00820077  RH  096%=      5-min Rain = 0
KWE1 230332Z 09009KT 08/08 A2983 RMK A01 T00820076  RH  096%=      5-min Rain = 0
KWE1 230333Z 09009KT 08/08 A2983 RMK A01 T00820076  RH  096%=      5-min Rain = 0
KWE1 230334Z 10009KT 08/08 A2983 RMK A01 T00820076  RH  096%=      5-min Rain = 0
KWE1 230335Z 10010KT 08/08 A2983 RMK A01 T00820076  RH  096%=      5-min Rain = 0
KWE1 230336Z 10010KT 08/08 A2983 RMK A01 T00820077  RH  096%=      5-min Rain = 0
KWE1 230337Z 09007KT 08/08 A2983 RMK A01 T00820076  RH  096%=      5-min Rain = 0
KWE1 230338Z 10008KT 08/08 A2983 RMK A01 T00820076  RH  096%=      5-min Rain = 0
KWE1 230339Z 09010KT 08/08 A2983 RMK A01 T00820076  RH  096%=      5-min Rain = 0
KWE1 230340Z 10008KT 08/08 A2983 RMK A01 T00820076  RH  096%=      5-min Rain = 0
KWE1 230341Z 09008KT 08/08 A2983 RMK A01 T00820076  RH  096%=      5-min Rain = 0
KWE1 230342Z 10007KT 08/08 A2983 RMK A01 T00820077  RH  096%=      5-min Rain = 0
KWE1 230343Z 10007KT 08/08 A2983 RMK A01 T00820076  RH  096%=      5-min Rain = 0
KWE1 230344Z 10010KT 08/08 A2983 RMK A01 T00820077  RH  096%=      5-min Rain = 0
KWE1 230345Z 10009KT 08/08 A2983 RMK A01 T00820077  RH  096%=      5-min Rain = 0
KWE1 230346Z 10009KT 08/08 A2983 RMK A01 T00820077  RH  096%=      5-min Rain = 0
KWE1 230347Z 10009KT 08/08 A2983 RMK A01 T00820077  RH  096%=      5-min Rain = 0
KWE1 230348Z 11010KT 08/08 A2983 RMK A01 T00820076  RH  096%=      5-min Rain = 0
KWE1 230349Z 11010KT 08/08 A2983 RMK A01 T00820076  RH  096%=      5-min Rain = 0
KWE1 230350Z 11009KT 08/08 A2983 RMK A01 T00820077  RH  096%=      5-min Rain = 0
KWE1 230351Z 10010KT 08/08 A2982 RMK A01 T00820077  RH  096%=      5-min Rain = 0
KWE1 230352Z 10009KT 08/08 A2982 RMK A01 T00820077  RH  096%=      5-min Rain = 0
KWE1 230353Z 11008KT 08/08 A2982 RMK A01 T00820077  RH  096%=      5-min Rain = 0
KWE1 230354Z 11009KT 08/08 A2982 RMK A01 T00820077  RH  096%=      5-min Rain = 0
KWE1 230355Z 12009KT 08/08 A2982 RMK A01 T00820076  RH  096%=      5-min Rain = 0
KWE1 230356Z 11011KT 08/08 A2982 RMK A01 T00820077  RH  096%=      5-min Rain = 0
KWE1 230357Z 11011KT 08/08 A2982 RMK A01 T00820077  RH  096%=      5-min Rain = 0
KWE1 230358Z 12011KT 08/08 A2982 RMK A01 T00820077  RH  096%=      5-min Rain = 0
KWE1 230359Z 12011KT 08/08 A2982 RMK A01 T00820076  RH  096%=      5-min Rain = 0
KWE1 230400Z 11011KT 08/08 A2982 RMK A01 T00820077  RH  096%=      5-min Rain = 0
KWE1 230401Z 11009KT 08/08 A2982 RMK A01 T00820076  RH  096%=      5-min Rain = 0
KWE1 230402Z 12009KT 08/08 A2982 RMK A01 T00820076  RH  096%=      5-min Rain = 0
KWE1 230403Z 12009KT 08/08 A2982 RMK A01 T00820076  RH  096%=      5-min Rain = 0
KWE1 230404Z 11009KT 08/08 A2982 RMK A01 T00820077  RH  097%=      5-min Rain = 0
KWE1 230405Z 12007KT 08/08 A2982 RMK A01 T00820077  RH  096%=      5-min Rain = 0
KWE1 230406Z 11008KT 08/08 A2982 RMK A01 T00820077  RH  097%=      5-min Rain = 0
KWE1 230407Z 12008KT 08/08 A2982 RMK A01 T00820076  RH  096%=      5-min Rain = 0
KWE1 230408Z 12007KT 08/08 A2982 RMK A01 T00820076  RH  096%=      5-min Rain = 0
KWE1 230409Z 11009KT 08/08 A2982 RMK A01 T00820077  RH  097%=      5-min Rain = 0
KWE1 230410Z 12007KT 08/08 A2982 RMK A01 T00820077  RH  097%=      5-min Rain = 0
KWE1 230411Z 12009KT 08/08 A2982 RMK A01 T00820077  RH  097%=      5-min Rain = 0
KWE1 230412Z 11008KT 08/08 A2982 RMK A01 T00820077  RH  097%=      5-min Rain = 0
KWE1 230413Z 12008KT 08/08 A2982 RMK A01 T00820077  RH  097%=      5-min Rain = 0
KWE1 230414Z 12009KT 08/08 A2982 RMK A01 T00820077  RH  097%=      5-min Rain = 0
KWE1 230415Z 12009KT 08/08 A2982 RMK A01 T00820077  RH  097%=      5-min Rain = 0
KWE1 230416Z 12009KT 08/08 A2982 RMK A01 T00820077  RH  097%=      5-min Rain = 0
KWE1 230417Z 13011KT 08/08 A2981 RMK A01 T00820077  RH  097%=      5-min Rain = 0
KWE1 230418Z 12010KT 08/08 A2982 RMK A01 T00820077  RH  097%=      5-min Rain = 0
KWE1 230419Z 12011KT 08/08 A2982 RMK A01 T00820076  RH  097%=      5-min Rain = 0
KWE1 230420Z 13011KT 08/08 A2982 RMK A01 T00820077  RH  097%=      5-min Rain = 0
KWE1 230421Z 12011KT 08/08 A2982 RMK A01 T00820077  RH  097%=      5-min Rain = 0
KWE1 230422Z 13012KT 08/08 A2982 RMK A01 T00820077  RH  097%=      5-min Rain = 0
KWE1 230423Z 13011KT 08/08 A2982 RMK A01 T00820076  RH  097%=      5-min Rain = 0
KWE1 230424Z 12011KT 08/08 A2982 RMK A01 T00820076  RH  097%=      5-min Rain = 0
KWE1 230425Z 12009KT 08/08 A2982 RMK A01 T00810076  RH  097%=      5-min Rain = 0
KWE1 230426Z 12010KT 08/08 A2982 RMK A01 T00810076  RH  097%=      5-min Rain = 0
KWE1 230427Z 12010KT 08/08 A2982 RMK A01 T00810076  RH  097%=      5-min Rain = 0
KWE1 230428Z 12012KT 08/08 A2981 RMK A01 T00810076  RH  097%=      5-min Rain = 0
KWE1 230429Z 12012KT 08/08 A2981 RMK A01 T00810076  RH  097%=      5-min Rain = 0
KWE1 230430Z 12011KT 08/08 A2981 RMK A01 T00820077  RH  097%=      5-min Rain = 0
KWE1 230431Z 12012KT 08/08 A2981 RMK A01 T00820077  RH  097%=      5-min Rain = 0
KWE1 230432Z 13013KT 08/08 A2981 RMK A01 T00820077  RH  097%=      5-min Rain = 0
KWE1 230433Z 12009KT 08/08 A2981 RMK A01 T00820077  RH  097%=      5-min Rain = 0
KWE1 230434Z 12009KT 08/08 A2981 RMK A01 T00820077  RH  097%=      5-min Rain = 0
KWE1 230435Z 12010KT 08/08 A2981 RMK A01 T00820077  RH  097%=      5-min Rain = 0
KWE1 230436Z 12010KT 08/08 A2981 RMK A01 T00820077  RH  097%=      5-min Rain = 0
KWE1 230437Z 12010KT 08/08 A2981 RMK A01 T00820077  RH  097%=      5-min Rain = 0
KWE1 230438Z 12010KT 08/08 A2981 RMK A01 T00820077  RH  097%=      5-min Rain = 0
KWE1 230439Z 12010KT 08/08 A2981 RMK A01 T00820077  RH  097%=      5-min Rain = 0
KWE1 230440Z 13010KT 08/08 A2981 RMK A01 T00830078  RH  097%=      5-min Rain = 0
KWE1 230441Z 13011KT 08/08 A2981 RMK A01 T00830078  RH  097%=      5-min Rain = 0
KWE1 230442Z 12009KT 08/08 A2981 RMK A01 T00830078  RH  097%=      5-min Rain = 0
KWE1 230443Z 13012KT 08/08 A2981 RMK A01 T00830078  RH  097%=      5-min Rain = 0
KWE1 230444Z 12012KT 08/08 A2981 RMK A01 T00830078  RH  097%=      5-min Rain = 0
KWE1 230445Z 12011KT 08/08 A298 RMK A01 T00840078  RH  097%=      5-min Rain = 0
KWE1 230446Z 12011KT 08/08 A298 RMK A01 T00830078  RH  097%=      5-min Rain = 0
KWE1 230447Z 12013KT 08/08 A298 RMK A01 T00840079  RH  097%=      5-min Rain = 0
KWE1 230448Z 12012KT 08/08 A298 RMK A01 T00840079  RH  097%=      5-min Rain = 0
KWE1 230449Z 12011KT 08/08 A298 RMK A01 T00840079  RH  097%=      5-min Rain = 0
KWE1 230450Z 12011KT 08/08 A298 RMK A01 T00840079  RH  097%=      5-min Rain = 0
KWE1 230451Z 12009KT 08/08 A298 RMK A01 T00840079  RH  097%=      5-min Rain = 0
KWE1 230452Z 12010KT 08/08 A298 RMK A01 T00840079  RH  097%=      5-min Rain = 0
KWE1 230453Z 12011KT 08/08 A2979 RMK A01 T00840079  RH  097%=      5-min Rain = 0
KWE1 230454Z 11007KT 08/08 A2979 RMK A01 T00840079  RH  097%=      5-min Rain = 0
KWE1 230455Z 12008KT 08/08 A2979 RMK A01 T00840079  RH  097%=      5-min Rain = 0
KWE1 230456Z 11008KT 08/08 A2979 RMK A01 T00840079  RH  097%=      5-min Rain = 0
KWE1 230457Z 11007KT 08/08 A2979 RMK A01 T00840079  RH  097%=      5-min Rain = 0
KWE1 230458Z 11009KT 08/08 A2979 RMK A01 T00840079  RH  097%=      5-min Rain = 0
KWE1 230459Z 11009KT 08/08 A2978 RMK A01 T00840079  RH  097%=      5-min Rain = 0
KWE1 230500Z 11008KT 08/08 A2978 RMK A01 T00840079  RH  097%=      5-min Rain = 0
KWE1 230501Z 11009KT 09/08 A2978 RMK A01 T00850080  RH  097%=      5-min Rain = 0
KWE1 230502Z 11008KT 09/08 A2978 RMK A01 T00850080  RH  097%=      5-min Rain = 0
KWE1 230503Z 11008KT 09/08 A2978 RMK A01 T00850080  RH  097%=      5-min Rain = 0
KWE1 230504Z 10008KT 09/08 A2978 RMK A01 T00850080  RH  097%=      5-min Rain = 0
KWE1 230505Z 11007KT 09/08 A2978 RMK A01 T00850080  RH  097%=      5-min Rain = 0
KWE1 230506Z 10009KT 09/08 A2978 RMK A01 T00850080  RH  097%=      5-min Rain = 0
KWE1 230507Z 09008KT 09/08 A2977 RMK A01 T00850080  RH  097%=      5-min Rain = 0
KWE1 230508Z 09008KT 09/08 A2977 RMK A01 T00850080  RH  097%=      5-min Rain = 0
KWE1 230509Z 10007KT 09/08 A2977 RMK A01 T00850080  RH  097%=      5-min Rain = 0
KWE1 230510Z 10006KT 09/08 A2977 RMK A01 T00850080  RH  097%=      5-min Rain = 0
KWE1 230511Z 09005KT 09/08 A2978 RMK A01 T00850080  RH  097%=      5-min Rain = 0
KWE1 230512Z 10006KT 09/08 A2978 RMK A01 T00850080  RH  097%=      5-min Rain = 0
KWE1 230513Z 09007KT 09/08 A2978 RMK A01 T00850080  RH  097%=      5-min Rain = 0
KWE1 230514Z 10008KT 09/08 A2977 RMK A01 T00850080  RH  097%=      5-min Rain = 0
KWE1 230515Z 10007KT 09/08 A2977 RMK A01 T00850080  RH  097%=      5-min Rain = 0
KWE1 230516Z 10007KT 09/08 A2977 RMK A01 T00850080  RH  097%=      5-min Rain = 0
KWE1 230517Z 09007KT 09/08 A2977 RMK A01 T00850080  RH  097%=      5-min Rain = 0
KWE1 230518Z 09008KT 09/08 A2977 RMK A01 T00850080  RH  097%=      5-min Rain = 0
KWE1 230519Z 09008KT 09/08 A2977 RMK A01 T00850080  RH  097%=      5-min Rain = 0
KWE1 230520Z 09007KT 09/08 A2977 RMK A01 T00850080  RH  097%=      5-min Rain = 0
KWE1 230521Z 08006KT 09/08 A2977 RMK A01 T00850080  RH  097%=      5-min Rain = 0
KWE1 230522Z 09007KT 09/08 A2977 RMK A01 T00850080  RH  097%=      5-min Rain = 0
KWE1 230523Z 09007KT 09/08 A2977 RMK A01 T00850080  RH  097%=      5-min Rain = 0
KWE1 230524Z 10006KT 09/08 A2977 RMK A01 T00850080  RH  097%=      5-min Rain = 0
KWE1 230525Z 09008KT 09/08 A2977 RMK A01 T00850080  RH  097%=      5-min Rain = 0
KWE1 230526Z 10008KT 09/08 A2977 RMK A01 T00850080  RH  097%=      5-min Rain = 0
KWE1 230527Z 10007KT 09/08 A2977 RMK A01 T00850080  RH  097%=      5-min Rain = 0
KWE1 230528Z 09006KT 09/08 A2977 RMK A01 T00850080  RH  097%=      5-min Rain = 0
KWE1 230529Z 09008KT 09/08 A2977 RMK A01 T00850080  RH  097%=      5-min Rain = 0
KWE1 230530Z 09007KT 09/08 A2977 RMK A01 T00850080  RH  097%=      5-min Rain = 0
KWE1 230531Z 09008KT 09/08 A2977 RMK A01 T00850080  RH  097%=      5-min Rain = 0
KWE1 230532Z 09008KT 08/08 A2977 RMK A01 T00840079  RH  097%=      5-min Rain = 0
KWE1 230533Z 10007KT 09/08 A2977 RMK A01 T00850080  RH  097%=      5-min Rain = 0
KWE1 230534Z 10009KT 08/08 A2977 RMK A01 T00840079  RH  097%=      5-min Rain = 0
KWE1 230535Z 09009KT 08/08 A2976 RMK A01 T00840079  RH  097%=      5-min Rain = 0
KWE1 230536Z 09007KT 09/08 A2976 RMK A01 T00850080  RH  097%=      5-min Rain = 0
KWE1 230537Z 09008KT 08/08 A2976 RMK A01 T00840079  RH  097%=      5-min Rain = 0
KWE1 230538Z 09007KT 09/08 A2976 RMK A01 T00850080  RH  097%=      5-min Rain = 0
KWE1 230539Z 09009KT 09/08 A2976 RMK A01 T00850080  RH  097%=      5-min Rain = 0
KWE1 230540Z 09008KT 09/08 A2976 RMK A01 T00850080  RH  097%=      5-min Rain = 0
KWE1 230541Z 09008KT 09/08 A2976 RMK A01 T00850080  RH  097%=      5-min Rain = 0
KWE1 230542Z 09008KT 09/08 A2976 RMK A01 T00850080  RH  097%=      5-min Rain = 0
KWE1 230543Z 09008KT 09/08 A2976 RMK A01 T00850079  RH  097%=      5-min Rain = 0
KWE1 230544Z 10008KT 09/08 A2976 RMK A01 T00850080  RH  097%=      5-min Rain = 0
KWE1 230545Z 10008KT 08/08 A2976 RMK A01 T00840079  RH  097%=      5-min Rain = 0
KWE1 230546Z 11008KT 09/08 A2976 RMK A01 T00850080  RH  097%=      5-min Rain = 0
KWE1 230547Z 11008KT 08/08 A2976 RMK A01 T00840079  RH  097%=      5-min Rain = 0
KWE1 230548Z 11010KT 09/08 A2976 RMK A01 T00850080  RH  097%=      5-min Rain = 0
KWE1 230549Z 11009KT 09/08 A2976 RMK A01 T00850080  RH  097%=      5-min Rain = 0
KWE1 230550Z 10009KT 09/08 A2976 RMK A01 T00850080  RH  097%=      5-min Rain = 0
KWE1 230551Z 11008KT 09/08 A2976 RMK A01 T00850080  RH  097%=      5-min Rain = 0
KWE1 230552Z 10008KT 09/08 A2976 RMK A01 T00850080  RH  097%=      5-min Rain = 0
KWE1 230553Z 11007KT 09/08 A2976 RMK A01 T00850080  RH  097%=      5-min Rain = 0
KWE1 230554Z 11006KT 09/08 A2976 RMK A01 T00850080  RH  097%=      5-min Rain = 0
KWE1 230555Z 11006KT 09/08 A2976 RMK A01 T00850080  RH  097%=      5-min Rain = 0
KWE1 230556Z 11010KT 09/08 A2976 RMK A01 T00850080  RH  097%=      5-min Rain = 0
KWE1 230557Z 11008KT 09/08 A2976 RMK A01 T00860081  RH  097%=      5-min Rain = 0
KWE1 230558Z 11008KT 09/08 A2976 RMK A01 T00870082  RH  097%=      5-min Rain = 0
KWE1 230559Z 11009KT 09/08 A2976 RMK A01 T00870082  RH  097%=      5-min Rain = 0

Page generated in 0.2049 seconds.